K5VW Weather Reports


Display with metric or nautical units.
time (UTC)temp
F
wind
direction
speed
MPH
gust
MPH
rain 1hr
in
rain 24hr
in
rain mn
in
humidity
%
barometer
mb
20260507140153 50 342 4.0 9.0 0.00 0.00 0.00 64 1016.4
20260507140055 50 325 4.0 9.0 0.00 0.00 0.00 64 1016.4
20260507140000 50 346 4.0 9.0 0.00 0.00 0.00 64 1016.4
20260507135855 50 316 4.0 9.0 0.00 0.00 0.00 64 1016.4
20260507135753 50 65 4.0 9.0 0.00 0.00 0.00 65 1016.3
20260507135652 50 300 4.0 11.0 0.00 0.00 0.00 65 1016.2
20260507135540 50 355 5.0 11.0 0.00 0.00 0.00 64 1016.2
20260507135440 50 315 5.0 11.0 0.00 0.00 0.00 64 1016.2
20260507135336 50 331 5.0 11.0 0.00 0.00 0.00 65 1016.2
20260507135244 50 313 5.0 11.0 0.00 0.00 0.00 65 1016.2
20260507135142 50 69 4.0 11.0 0.00 0.00 0.00 65 1016.2
20260507135040 50 330 5.0 11.0 0.00 0.00 0.00 65 1016.2
20260507134936 50 320 4.0 11.0 0.00 0.00 0.00 65 1016.2
20260507134835 50 327 4.0 11.0 0.00 0.00 0.00 65 1016.2
20260507134731 50 48 4.0 11.0 0.00 0.00 0.00 65 1016.2
20260507134632 50 332 3.0 10.0 0.00 0.00 0.00 65 1016.2
20260507134536 50 319 3.0 10.0 0.00 0.00 0.00 65 1016.2
20260507134437 50 336 3.0 10.0 0.00 0.00 0.00 65 1016.2
20260507134329 50 333 3.0 9.0 0.00 0.00 0.00 65 1016.2
20260507134238 50 330 3.0 9.0 0.00 0.00 0.00 65 1016.2
20260507134129 50 65 3.0 9.0 0.00 0.00 0.00 65 1016.2
20260507134026 50 0 3.0 9.0 0.00 0.00 0.00 65 1016.2
20260507133925 50 40 3.0 9.0 0.00 0.00 0.00 65 1016.2
20260507133824 50 30 3.0 9.0 0.00 0.00 0.00 65 1016.2
20260507133717 50 305 4.0 9.0 0.00 0.00 0.00 65 1016.2
20260507133614 50 50 4.0 9.0 0.00 0.00 0.00 65 1016.2
20260507133518 50 11 4.0 9.0 0.00 0.00 0.00 65 1016.2
20260507133420 49 80 3.0 9.0 0.00 0.00 0.00 65 1016.1
20260507133314 49 324 4.0 9.0 0.00 0.00 0.00 65 1016.1
20260507133218 49 69 4.0 9.0 0.00 0.00 0.00 65 1016.1
20260507133111 49 24 4.0 11.0 0.00 0.00 0.00 65 1016.1
20260507133012 49 77 5.0 11.0 0.00 0.00 0.00 65 1016.1
20260507132917 49 32 5.0 12.0 0.00 0.00 0.00 65 1016.1
20260507132758 49 338 5.0 12.0 0.00 0.00 0.00 65 1016.1
20260507132657 49 342 4.0 12.0 0.00 0.00 0.00 65 1016.3
20260507132555 49 319 4.0 12.0 0.00 0.00 0.00 66 1016.3
20260507132500 49 324 4.0 12.0 0.00 0.00 0.00 66 1016.3
20260507132351 49 337 4.0 12.0 0.00 0.00 0.00 65 1016.3
20260507132257 49 18 4.0 12.0 0.00 0.00 0.00 65 1016.3
20260507132147 49 355 4.0 12.0 0.00 0.00 0.00 65 1016.3
20260507132048 49 340 4.0 12.0 0.00 0.00 0.00 65 1016.3
20260507131942 49 328 4.0 12.0 0.00 0.00 0.00 65 1016.3
20260507131847 49 315 4.0 10.0 0.00 0.00 0.00 65 1016.3
20260507131747 49 86 4.0 10.0 0.00 0.00 0.00 65 1016.3
20260507131643 49 53 4.0 10.0 0.00 0.00 0.00 65 1016.3
20260507131554 49 28 4.0 10.0 0.00 0.00 0.00 65 1016.3
20260507131513 49 313 4.0 10.0 0.00 0.00 0.00 65 1016.3
20260507131347 49 337 4.0 10.0 0.00 0.00 0.00 65 1016.3
20260507131240 49 82 4.0 11.0 0.00 0.00 0.00 65 1016.3
20260507131146 49 46 4.0 11.0 0.00 0.00 0.00 65 1015.5
20260507131035 49 57 5.0 11.0 0.00 0.00 0.00 65 1015.5
20260507130938 49 54 5.0 11.0 0.00 0.00 0.00 65 1015.5
20260507130841 49 331 5.0 11.0 0.00 0.00 0.00 65 1015.5
20260507130741 49 67 6.0 11.0 0.00 0.00 0.00 65 1015.5
20260507130634 49 324 6.0 11.0 0.00 0.00 0.00 65 1015.5
20260507130541 49 15 6.0 11.0 0.00 0.00 0.00 65 1015.5
20260507130436 49 313 6.0 11.0 0.00 0.00 0.00 65 1015.5
20260507130337 49 350 6.0 11.0 0.00 0.00 0.00 65 1015.5
20260507130233 49 340 6.0 11.0 0.00 0.00 0.00 65 1015.5
20260507130133 49 349 5.0 11.0 0.00 0.00 0.00 65 1015.5
20260507130031 49 322 5.0 10.0 0.00 0.00 0.00 66 1015.5
20260507125935 49 342 4.0 10.0 0.00 0.00 0.00 66 1015.5
20260507125835 49 324 4.0 10.0 0.00 0.00 0.00 66 1015.5
20260507125736 49 342 4.0 10.0 0.00 0.00 0.00 66 1015.3
20260507125631 49 327 4.0 11.0 0.00 0.00 0.00 66 1015.3
20260507125531 49 299 4.0 11.0 0.00 0.00 0.00 66 1015.3
20260507125430 49 42 4.0 11.0 0.00 0.00 0.00 66 1015.3
20260507125326 49 320 4.0 12.0 0.00 0.00 0.00 66 1015.3
20260507125225 49 340 4.0 12.0 0.00 0.00 0.00 66 1015.3
20260507125133 49 23 4.0 12.0 0.00 0.00 0.00 66 1015.3
20260507125025 49 38 5.0 12.0 0.00 0.00 0.00 66 1015.3
20260507124920 49 40 5.0 12.0 0.00 0.00 0.00 65 1015.3
20260507124828 49 331 5.0 12.0 0.00 0.00 0.00 65 1015.3
20260507124716 49 312 5.0 12.0 0.00 0.00 0.00 65 1015.3
20260507124625 49 313 5.0 12.0 0.00 0.00 0.00 66 1015.3
20260507124517 49 279 5.0 12.0 0.00 0.00 0.00 66 1015.3
20260507124411 49 345 5.0 12.0 0.00 0.00 0.00 66 1015.3
20260507124316 49 67 5.0 11.0 0.00 0.00 0.00 66 1015.3
20260507124214 49 326 6.0 12.0 0.00 0.00 0.00 65 1015.2
20260507124110 49 337 6.0 12.0 0.00 0.00 0.00 65 1015.2
20260507124002 49 301 5.0 12.0 0.00 0.00 0.00 65 1015.2
20260507123901 49 55 5.0 12.0 0.00 0.00 0.00 65 1015.2
20260507123805 49 334 5.0 12.0 0.00 0.00 0.00 66 1015.2
20260507123655 49 324 6.0 12.0 0.00 0.00 0.00 65 1015.2
20260507123548 49 336 6.0 12.0 0.00 0.00 0.00 65 1015.2
20260507123448 49 330 6.0 12.0 0.00 0.00 0.00 65 1015.2
20260507123415 49 331 6.0 12.0 0.00 0.00 0.00 65 1015.2
20260507123245 49 317 6.0 11.0 0.00 0.00 0.00 65 1015.2
20260507123146 49 346 6.0 11.0 0.00 0.00 0.00 65 1015.2
20260507123041 49 12 6.0 11.0 0.00 0.00 0.00 65 1015.2
20260507122940 49 22 6.0 11.0 0.00 0.00 0.00 65 1015.2
20260507122842 49 322 6.0 11.0 0.00 0.00 0.00 65 1015.2
20260507122746 49 282 7.0 11.0 0.00 0.00 0.00 65 1015.2
20260507122638 49 329 7.0 11.0 0.00 0.00 0.00 65 1015.2
20260507122538 49 27 6.0 11.0 0.00 0.00 0.00 65 1015.2
20260507122439 49 344 7.0 11.0 0.00 0.00 0.00 65 1015.2
20260507122411 49 324 7.0 11.0 0.00 0.00 0.00 65 1015.2
20260507122242 49 350 7.0 11.0 0.00 0.00 0.00 65 1015.2
20260507122137 49 319 7.0 11.0 0.00 0.00 0.00 65 1015.2
20260507122044 49 340 7.0 11.0 0.00 0.00 0.00 65 1015.2
20260507121938 49 284 7.0 11.0 0.00 0.00 0.00 65 1015.2
20260507121841 49 313 7.0 11.0 0.00 0.00 0.00 65 1015.2
20260507121741 49 319 6.0 11.0 0.00 0.00 0.00 65 1015.2
20260507121633 49 24 6.0 11.0 0.00 0.00 0.00 65 1015.2
20260507121535 49 275 6.0 11.0 0.00 0.00 0.00 65 1015.2
20260507121428 49 327 6.0 10.0 0.00 0.00 0.00 65 1015.2
20260507121332 49 332 6.0 11.0 0.00 0.00 0.00 65 1015.2
20260507121230 49 317 6.0 11.0 0.00 0.00 0.00 65 1014.8
20260507121131 49 255 6.0 11.0 0.00 0.00 0.00 65 1014.8
20260507121024 49 313 6.0 11.0 0.00 0.00 0.00 65 1014.8
20260507120924 49 322 6.0 11.0 0.00 0.00 0.00 66 1014.8
20260507120826 49 329 6.0 11.0 0.00 0.00 0.00 65 1014.8
20260507120725 49 333 6.0 11.0 0.00 0.00 0.00 65 1014.8
20260507120620 49 330 6.0 11.0 0.00 0.00 0.00 65 1014.8
20260507120510 49 53 6.0 11.0 0.00 0.00 0.00 66 1014.8
20260507120411 49 333 6.0 11.0 0.00 0.00 0.00 65 1014.8
20260507120308 49 327 6.0 11.0 0.00 0.00 0.00 66 1014.8
20260507120213 49 50 6.0 11.0 0.00 0.00 0.00 65 1014.8
20260507120107 49 321 6.0 11.0 0.00 0.00 0.00 66 1014.8
20260507120000 49 299 6.0 11.0 0.00 0.00 0.00 66 1014.8
20260507115901 49 336 6.0 11.0 0.00 0.00 0.00 66 1014.7
20260507115758 49 327 6.0 11.0 0.00 0.00 0.00 66 1014.7
20260507115704 49 29 6.0 11.0 0.00 0.00 0.00 66 1014.7
20260507115552 49 333 5.0 10.0 0.00 0.00 0.00 66 1014.7
20260507115457 49 331 5.0 10.0 0.00 0.00 0.00 66 1014.7
20260507115359 49 11 5.0 10.0 0.00 0.00 0.00 66 1014.7
20260507115251 49 311 5.0 10.0 0.00 0.00 0.00 67 1014.7
20260507115154 49 345 5.0 10.0 0.00 0.00 0.00 67 1014.7
20260507115044 49 347 5.0 10.0 0.00 0.00 0.00 67 1014.5
20260507114946 49 44 5.0 10.0 0.00 0.00 0.00 67 1014.5
20260507114912 49 333 5.0 10.0 0.00 0.00 0.00 67 1014.5
20260507114826 49 298 5.0 10.0 0.00 0.00 0.00 67 1014.5
20260507114707 49 340 5.0 10.0 0.00 0.00 0.00 67 1014.5
20260507114557 49 34 5.0 10.0 0.00 0.00 0.00 67 1014.5
20260507114437 49 319 5.0 10.0 0.00 0.00 0.00 67 1014.5
20260507114357 49 333 5.0 10.0 0.00 0.00 0.00 67 1014.5
20260507114257 49 309 5.0 10.0 0.00 0.00 0.00 67 1014.5
20260507114204 49 275 5.0 10.0 0.00 0.00 0.00 67 1014.9
20260507114054 49 308 5.0 10.0 0.00 0.00 0.00 68 1014.9
20260507113944 49 320 4.0 10.0 0.00 0.00 0.00 68 1014.9
20260507113833 49 328 4.0 10.0 0.00 0.00 0.00 68 1014.9
20260507113733 48 323 4.0 10.0 0.00 0.00 0.00 68 1014.8
20260507113632 48 331 4.0 10.0 0.00 0.00 0.00 68 1014.8
20260507113531 48 327 4.0 10.0 0.00 0.00 0.00 68 1014.8
20260507113437 48 297 3.0 10.0 0.00 0.00 0.00 68 1014.8
20260507113329 48 321 3.0 10.0 0.00 0.00 0.00 68 1014.8
20260507113230 48 317 3.0 9.0 0.00 0.00 0.00 68 1014.8
20260507113129 48 337 3.0 9.0 0.00 0.00 0.00 69 1014.8
20260507113024 48 314 3.0 9.0 0.00 0.00 0.00 68 1014.8
20260507112923 48 355 3.0 9.0 0.00 0.00 0.00 69 1014.8
20260507112816 48 294 3.0 9.0 0.00 0.00 0.00 69 1014.8
20260507112711 48 317 3.0 9.0 0.00 0.00 0.00 69 1014.7
20260507112615 48 323 3.0 9.0 0.00 0.00 0.00 69 1014.7
20260507112509 48 5 3.0 9.0 0.00 0.00 0.00 69 1014.7
20260507112415 48 335 4.0 9.0 0.00 0.00 0.00 69 1014.7
20260507112257 48 343 3.0 8.0 0.00 0.00 0.00 69 1014.7
20260507112153 48 309 3.0 8.0 0.00 0.00 0.00 69 1014.7
20260507112053 48 325 4.0 8.0 0.00 0.00 0.00 69 1014.7
20260507111954 48 347 4.0 8.0 0.00 0.00 0.00 69 1014.7
20260507111856 48 317 4.0 8.0 0.00 0.00 0.00 69 1014.7
20260507111755 48 308 4.0 8.0 0.00 0.00 0.00 69 1014.7
20260507111656 48 317 4.0 8.0 0.00 0.00 0.00 69 1014.7
20260507111550 48 327 4.0 8.0 0.00 0.00 0.00 69 1014.7
20260507111450 48 320 4.0 8.0 0.00 0.00 0.00 69 1014.7
20260507111351 48 311 4.0 8.0 0.00 0.00 0.00 69 1014.7
20260507111244 48 309 4.0 8.0 0.00 0.00 0.00 69 1014.7
20260507111146 48 317 4.0 8.0 0.00 0.00 0.00 69 1014.3
20260507111052 48 314 4.0 8.0 0.00 0.00 0.00 69 1014.3
20260507110942 48 279 4.0 10.0 0.00 0.00 0.00 69 1014.3
20260507110846 48 284 4.0 10.0 0.00 0.00 0.00 69 1014.3
20260507110745 48 319 4.0 10.0 0.00 0.00 0.00 69 1014.3
20260507110646 48 300 4.0 10.0 0.00 0.00 0.00 69 1014.3
20260507110538 48 327 4.0 10.0 0.00 0.00 0.00 68 1014.3
20260507110440 48 316 4.0 10.0 0.00 0.00 0.00 69 1014.3
20260507110336 48 316 5.0 10.0 0.00 0.00 0.00 69 1014.3
20260507110237 48 330 5.0 10.0 0.00 0.00 0.00 69 1014.3
20260507110137 48 0 5.0 12.0 0.00 0.00 0.00 68 1014.3
20260507110025 48 297 5.0 12.0 0.00 0.00 0.00 68 1014.3
20260507105926 48 329 5.0 12.0 0.00 0.00 0.00 68 1014.3
20260507105829 48 304 5.0 12.0 0.00 0.00 0.00 68 1014.4
20260507105726 48 311 5.0 12.0 0.00 0.00 0.00 68 1014.2
20260507105629 48 334 5.0 12.0 0.00 0.00 0.00 68 1014.2
20260507105521 48 25 5.0 12.0 0.00 0.00 0.00 68 1014.2
20260507105432 48 342 5.0 12.0 0.00 0.00 0.00 68 1014.2
20260507105322 48 321 6.0 12.0 0.00 0.00 0.00 68 1014.2
20260507105216 48 322 6.0 11.0 0.00 0.00 0.00 68 1014.2
20260507105110 48 277 6.0 12.0 0.00 0.00 0.00 68 1014.2
20260507105007 48 281 6.0 12.0 0.00 0.00 0.00 68 1014.2
20260507104900 49 338 6.0 12.0 0.00 0.00 0.00 68 1014.2
20260507104800 49 317 6.0 12.0 0.00 0.00 0.00 68 1014.2
20260507104701 49 348 6.0 12.0 0.00 0.00 0.00 68 1014.2
20260507104602 49 346 6.0 12.0 0.00 0.00 0.00 67 1014.2
20260507104449 49 334 6.0 12.0 0.00 0.00 0.00 67 1014.2
20260507104353 49 355 6.0 12.0 0.00 0.00 0.00 67 1014.2
20260507104246 49 323 7.0 12.0 0.00 0.00 0.00 67 1014.2
20260507104149 49 321 6.0 12.0 0.00 0.00 0.00 67 1014.0
20260507104048 49 318 6.0 12.0 0.00 0.00 0.00 67 1014.0
20260507103951 49 344 6.0 12.0 0.00 0.00 0.00 67 1014.0
20260507103844 49 348 6.0 13.0 0.00 0.00 0.00 67 1014.0
20260507103746 49 307 7.0 13.0 0.00 0.00 0.00 67 1014.0
20260507103639 49 331 7.0 13.0 0.00 0.00 0.00 67 1014.0
20260507103541 49 17 7.0 13.0 0.00 0.00 0.00 67 1014.0
20260507103435 49 269 7.0 13.0 0.00 0.00 0.00 67 1014.0
20260507103342 49 331 7.0 13.0 0.00 0.00 0.00 67 1014.0
20260507103244 49 336 7.0 13.0 0.00 0.00 0.00 67 1014.0
20260507103139 49 49 7.0 13.0 0.00 0.00 0.00 67 1014.0
20260507103035 49 333 7.0 13.0 0.00 0.00 0.00 67 1014.1
20260507102934 49 311 7.0 13.0 0.00 0.00 0.00 67 1014.1
20260507102837 49 307 7.0 13.0 0.00 0.00 0.00 67 1014.1
20260507102729 49 324 7.0 13.0 0.00 0.00 0.00 66 1014.0
20260507102633 49 330 7.0 13.0 0.00 0.00 0.00 66 1014.0
20260507102527 49 328 7.0 13.0 0.00 0.00 0.00 66 1014.0
20260507102429 49 15 7.0 13.0 0.00 0.00 0.00 66 1014.0
20260507102329 49 13 7.0 13.0 0.00 0.00 0.00 66 1014.0
20260507102223 49 303 7.0 13.0 0.00 0.00 0.00 66 1014.0
20260507102119 49 302 7.0 13.0 0.00 0.00 0.00 66 1014.0
20260507102013 49 24 7.0 13.0 0.00 0.00 0.00 66 1014.0
20260507101919 49 325 7.0 13.0 0.00 0.00 0.00 66 1014.0
20260507101817 49 315 7.0 13.0 0.00 0.00 0.00 66 1014.0
20260507101708 49 346 7.0 13.0 0.00 0.00 0.00 66 1014.0
20260507101610 49 306 7.0 13.0 0.00 0.00 0.00 66 1014.0
20260507101509 49 309 7.0 13.0 0.00 0.00 0.00 66 1014.0
20260507101409 49 299 6.0 13.0 0.00 0.00 0.00 66 1014.0
20260507101309 49 317 6.0 12.0 0.00 0.00 0.00 66 1014.0
20260507101209 49 295 6.0 12.0 0.00 0.00 0.00 66 1014.0
20260507101121 49 303 7.0 12.0 0.00 0.00 0.00 66 1014.0
20260507101015 49 319 7.0 12.0 0.00 0.00 0.00 66 1014.0
20260507100907 49 325 7.0 16.0 0.00 0.00 0.00 66 1014.0
20260507100804 49 307 8.0 16.0 0.00 0.00 0.00 66 1014.0
20260507100659 49 304 8.0 16.0 0.00 0.00 0.00 66 1014.0
20260507100558 49 332 8.0 16.0 0.00 0.00 0.00 66 1014.0
20260507100501 49 252 8.0 16.0 0.00 0.00 0.00 66 1014.0
20260507100358 49 323 8.0 16.0 0.00 0.00 0.00 66 1014.0
20260507100253 49 313 9.0 16.0 0.00 0.00 0.00 66 1014.1
20260507100139 49 309 9.0 16.0 0.00 0.00 0.00 66 1014.1
20260507100039 49 289 9.0 16.0 0.00 0.00 0.00 66 1014.1
20260507095932 49 291 8.0 14.0 0.00 0.00 0.00 66 1014.1
20260507095830 49 261 8.0 14.0 0.00 0.00 0.00 66 1014.1
20260507095727 49 9 8.0 14.0 0.00 0.00 0.00 66 1013.5
20260507095630 49 290 8.0 14.0 0.00 0.00 0.00 66 1013.5
20260507095533 49 346 9.0 14.0 0.00 0.00 0.00 66 1013.5
20260507095422 49 297 8.0 14.0 0.00 0.00 0.00 66 1013.5
20260507095313 49 346 8.0 14.0 0.00 0.00 0.00 66 1013.5
20260507095213 49 303 8.0 14.0 0.00 0.00 0.00 66 1013.5
20260507095117 49 286 8.0 14.0 0.00 0.00 0.00 66 1013.5
20260507095010 49 309 7.0 14.0 0.00 0.00 0.00 66 1013.5
20260507094910 49 321 7.0 14.0 0.00 0.00 0.00 66 1013.5
20260507094810 49 284 7.0 14.0 0.00 0.00 0.00 66 1013.5
20260507094702 49 331 7.0 14.0 0.00 0.00 0.00 66 1013.5
20260507094557 49 306 7.0 13.0 0.00 0.00 0.00 66 1013.5
20260507094455 49 329 7.0 13.0 0.00 0.00 0.00 66 1013.5
20260507094351 49 328 7.0 14.0 0.00 0.00 0.00 66 1013.5
20260507094248 49 338 7.0 14.0 0.00 0.00 0.00 66 1013.5
20260507094146 49 296 7.0 14.0 0.00 0.00 0.00 66 1013.4
20260507094049 49 344 7.0 14.0 0.00 0.00 0.00 66 1013.4
20260507093952 49 303 8.0 14.0 0.00 0.00 0.00 66 1013.4
20260507093845 50 322 8.0 14.0 0.00 0.00 0.00 65 1013.4
20260507093744 49 302 8.0 14.0 0.00 0.00 0.00 65 1013.4
20260507093644 49 346 8.0 14.0 0.00 0.00 0.00 65 1013.4
20260507093538 50 302 7.0 14.0 0.00 0.00 0.00 65 1013.4
20260507093439 50 323 7.0 14.0 0.00 0.00 0.00 65 1013.4
20260507093338 50 26 7.0 12.0 0.00 0.00 0.00 65 1013.4
20260507093236 50 319 7.0 12.0 0.00 0.00 0.00 65 1013.4
20260507093137 50 263 7.0 12.0 0.00 0.00 0.00 65 1013.4
20260507093038 50 297 7.0 12.0 0.00 0.00 0.00 65 1013.4
20260507092945 50 355 7.0 12.0 0.00 0.00 0.00 65 1013.4
20260507092836 50 320 7.0 12.0 0.00 0.00 0.00 65 1013.4
20260507092736 50 287 7.0 12.0 0.00 0.00 0.00 65 1013.4
20260507092633 50 344 7.0 12.0 0.00 0.00 0.00 65 1013.3
20260507092535 50 284 7.0 12.0 0.00 0.00 0.00 65 1013.3
20260507092429 50 331 7.0 11.0 0.00 0.00 0.00 65 1013.3
20260507092326 50 24 7.0 11.0 0.00 0.00 0.00 65 1013.4
20260507092226 50 24 8.0 16.0 0.00 0.00 0.00 65 1013.4
20260507092126 50 296 8.0 16.0 0.00 0.00 0.00 65 1013.4
20260507092020 50 327 8.0 16.0 0.00 0.00 0.00 65 1013.4
20260507091922 50 319 8.0 16.0 0.00 0.00 0.00 65 1013.4
20260507091815 50 283 8.0 16.0 0.00 0.00 0.00 65 1013.4
20260507091710 50 310 8.0 16.0 0.00 0.00 0.00 65 1013.4
20260507091611 50 331 8.0 16.0 0.00 0.00 0.00 65 1013.4
20260507091510 50 342 8.0 16.0 0.00 0.00 0.00 65 1013.4
20260507091412 50 305 8.0 16.0 0.00 0.00 0.00 65 1013.4
20260507091309 50 297 8.0 16.0 0.00 0.00 0.00 65 1013.4
20260507091207 50 309 8.0 13.0 0.00 0.00 0.00 65 1013.4
20260507091108 50 329 8.0 13.0 0.00 0.00 0.00 65 1013.5
20260507091014 50 288 8.0 13.0 0.00 0.00 0.00 65 1013.5
20260507090907 50 308 8.0 13.0 0.00 0.00 0.00 64 1013.5
20260507090814 50 288 8.0 13.0 0.00 0.00 0.00 64 1013.5
20260507090709 50 320 8.0 13.0 0.00 0.00 0.00 64 1013.5
20260507090604 50 327 8.0 14.0 0.00 0.00 0.00 64 1013.5
20260507090504 50 334 8.0 14.0 0.00 0.00 0.00 64 1013.5
20260507090359 50 307 8.0 14.0 0.00 0.00 0.00 64 1013.5
20260507090253 50 319 8.0 14.0 0.00 0.00 0.00 64 1013.5
20260507090152 50 287 8.0 14.0 0.00 0.00 0.00 64 1013.5
20260507090056 50 293 8.0 14.0 0.00 0.00 0.00 64 1013.5
20260507085945 50 289 8.0 16.0 0.00 0.00 0.00 64 1013.5
20260507085838 50 315 8.0 16.0 0.00 0.00 0.00 64 1013.5
20260507085735 50 320 8.0 16.0 0.00 0.00 0.00 64 1013.5
20260507085637 50 334 8.0 16.0 0.00 0.00 0.00 64 1013.4
20260507085540 50 329 8.0 16.0 0.00 0.00 0.00 64 1013.5
20260507085437 50 315 8.0 16.0 0.00 0.00 0.00 64 1013.4
20260507085336 50 303 8.0 16.0 0.00 0.00 0.00 64 1013.5
20260507085236 50 288 8.0 16.0 0.00 0.00 0.00 64 1013.5
20260507085134 50 315 8.0 16.0 0.00 0.00 0.00 64 1013.5
20260507085030 50 327 8.0 16.0 0.00 0.00 0.00 64 1013.5
20260507084930 50 305 9.0 16.0 0.00 0.00 0.00 64 1013.5
20260507084830 50 315 9.0 15.0 0.00 0.00 0.00 64 1013.5
20260507084728 50 306 9.0 15.0 0.00 0.00 0.00 64 1013.5
20260507084627 50 302 9.0 15.0 0.00 0.00 0.00 64 1013.5
20260507084528 51 274 9.0 15.0 0.00 0.00 0.00 63 1013.5
20260507084423 51 319 9.0 15.0 0.00 0.00 0.00 63 1013.5
20260507084326 51 339 9.0 15.0 0.00 0.00 0.00 63 1013.5
20260507084219 51 313 9.0 15.0 0.00 0.00 0.00 63 1013.4
20260507084119 51 311 8.0 15.0 0.00 0.00 0.00 63 1013.4
20260507084017 51 285 8.0 15.0 0.00 0.00 0.00 63 1013.4
20260507083943 51 329 8.0 15.0 0.00 0.00 0.00 63 1013.4
20260507083811 51 332 8.0 14.0 0.00 0.00 0.00 63 1013.4
20260507083711 51 300 8.0 14.0 0.00 0.00 0.00 63 1013.4
20260507083606 51 299 9.0 15.0 0.00 0.00 0.00 63 1013.4
20260507083508 51 335 9.0 15.0 0.00 0.00 0.00 63 1013.4
20260507083411 51 239 9.0 15.0 0.00 0.00 0.00 63 1013.4
20260507083306 51 324 9.0 15.0 0.00 0.00 0.00 63 1013.4
20260507083208 51 327 9.0 15.0 0.00 0.00 0.00 63 1013.5
20260507083106 51 306 9.0 15.0 0.00 0.00 0.00 63 1013.5
20260507083008 51 285 10.0 15.0 0.00 0.00 0.00 63 1013.5
20260507082859 51 311 10.0 15.0 0.00 0.00 0.00 63 1013.5
20260507082802 51 298 9.0 15.0 0.00 0.00 0.00 63 1013.5
20260507082657 51 331 9.0 15.0 0.00 0.00 0.00 63 1013.0
20260507082554 51 311 9.0 15.0 0.00 0.00 0.00 63 1013.0
20260507082437 51 324 10.0 15.0 0.00 0.00 0.00 62 1013.1
20260507082336 51 323 10.0 20.0 0.00 0.00 0.00 62 1013.1
20260507082242 51 291 10.0 20.0 0.00 0.00 0.00 62 1013.1
20260507082145 51 294 9.0 20.0 0.00 0.00 0.00 62 1013.1
20260507082041 51 16 9.0 20.0 0.00 0.00 0.00 62 1013.1
20260507081930 51 61 9.0 20.0 0.00 0.00 0.00 62 1013.1
20260507081823 51 336 9.0 20.0 0.00 0.00 0.00 62 1013.1
20260507081728 51 325 9.0 20.0 0.00 0.00 0.00 62 1013.1
20260507081617 51 305 9.0 20.0 0.00 0.00 0.00 62 1013.1
20260507081515 51 327 9.0 20.0 0.00 0.00 0.00 62 1013.2
20260507081409 51 309 9.0 16.0 0.00 0.00 0.00 62 1013.2
20260507081314 51 24 9.0 18.0 0.00 0.00 0.00 62 1013.2
20260507081212 51 341 9.0 18.0 0.00 0.00 0.00 62 1012.9
20260507081109 51 286 9.0 18.0 0.00 0.00 0.00 62 1012.9
20260507081010 52 316 9.0 18.0 0.00 0.00 0.00 61 1012.9
20260507080910 52 331 10.0 18.0 0.00 0.00 0.00 61 1012.9
20260507080807 51 265 10.0 18.0 0.00 0.00 0.00 61 1012.9
20260507080701 52 341 10.0 18.0 0.00 0.00 0.00 61 1012.9
20260507080555 52 343 10.0 18.0 0.00 0.00 0.00 61 1012.9
20260507080449 51 342 10.0 18.0 0.00 0.00 0.00 61 1012.9
20260507080350 51 22 10.0 14.0 0.00 0.00 0.00 62 1012.9
20260507080248 51 344 10.0 16.0 0.00 0.00 0.00 62 1012.9
20260507080142 51 341 10.0 16.0 0.00 0.00 0.00 62 1012.9
20260507080043 51 304 10.0 16.0 0.00 0.00 0.00 62 1012.9
20260507075944 51 15 10.0 16.0 0.00 0.00 0.00 62 1012.9
20260507075836 51 300 10.0 16.0 0.00 0.00 0.00 62 1012.9
20260507075737 51 321 11.0 20.0 0.00 0.00 0.00 61 1012.9
20260507075636 51 329 11.0 20.0 0.00 0.00 0.00 61 1012.8
20260507075538 51 299 11.0 20.0 0.00 0.00 0.00 61 1012.8
20260507075435 51 17 11.0 20.0 0.00 0.00 0.00 61 1012.8
20260507075335 51 340 11.0 21.0 0.00 0.00 0.00 61 1012.8
20260507075238 51 9 11.0 21.0 0.00 0.00 0.00 61 1012.8
20260507075132 51 292 11.0 21.0 0.00 0.00 0.00 61 1012.8
20260507075038 52 351 11.0 21.0 0.00 0.00 0.00 61 1012.9
20260507074933 52 322 12.0 21.0 0.00 0.00 0.00 61 1012.9
20260507074836 52 313 12.0 21.0 0.00 0.00 0.00 61 1012.9
20260507074735 52 40 11.0 21.0 0.00 0.00 0.00 61 1012.9
20260507074637 52 318 11.0 21.0 0.00 0.00 0.00 61 1012.9
20260507074528 52 322 11.0 21.0 0.00 0.00 0.00 61 1012.9
20260507074432 52 346 11.0 21.0 0.00 0.00 0.00 61 1012.9
20260507074326 52 15 11.0 19.0 0.00 0.00 0.00 61 1012.9
20260507074230 52 13 10.0 19.0 0.00 0.00 0.00 61 1012.8
20260507074120 52 324 10.0 19.0 0.00 0.00 0.00 61 1012.8
20260507074018 51 317 10.0 19.0 0.00 0.00 0.00 61 1012.7
20260507073923 51 339 10.0 18.0 0.00 0.00 0.00 61 1012.7
20260507073821 51 14 10.0 20.0 0.00 0.00 0.00 61 1012.7
20260507073711 51 340 10.0 20.0 0.00 0.00 0.00 62 1012.7
20260507073614 51 341 10.0 20.0 0.00 0.00 0.00 62 1012.7
20260507073515 51 298 11.0 20.0 0.00 0.00 0.00 62 1012.7
20260507073412 51 309 11.0 20.0 0.00 0.00 0.00 61 1012.7
20260507073320 51 12 12.0 20.0 0.00 0.00 0.00 61 1012.7
20260507073203 51 334 12.0 23.0 0.00 0.00 0.00 61 1012.7
20260507073107 51 309 12.0 23.0 0.00 0.00 0.00 61 1012.7
20260507072955 51 292 12.0 23.0 0.00 0.00 0.00 61 1012.6
20260507072853 51 319 12.0 23.0 0.00 0.00 0.00 61 1012.6
20260507072801 51 355 13.0 23.0 0.00 0.00 0.00 61 1012.7
20260507072646 51 330 13.0 23.0 0.00 0.00 0.00 61 1012.6
20260507072548 51 324 14.0 23.0 0.00 0.00 0.00 61 1012.6
20260507072445 51 27 14.0 23.0 0.00 0.00 0.00 61 1012.6
20260507072351 51 344 14.0 23.0 0.00 0.00 0.00 61 1012.6
20260507072251 51 346 13.0 23.0 0.00 0.00 0.00 61 1012.6
20260507072158 51 323 14.0 23.0 0.00 0.00 0.00 61 1012.6
20260507072041 51 19 14.0 23.0 0.00 0.00 0.00 61 1012.6
20260507071937 51 347 14.0 23.0 0.00 0.00 0.00 61 1012.6
20260507071834 51 307 14.0 23.0 0.00 0.00 0.00 61 1012.6
20260507071735 51 281 13.0 23.0 0.00 0.00 0.00 61 1012.6
20260507071635 51 349 13.0 23.0 0.00 0.00 0.00 61 1012.6
20260507071541 51 294 12.0 22.0 0.00 0.00 0.00 61 1012.6
20260507071433 51 308 12.0 22.0 0.00 0.00 0.00 61 1012.6
20260507071336 51 294 12.0 22.0 0.00 0.00 0.00 61 1012.6
20260507071229 51 317 12.0 22.0 0.00 0.00 0.00 61 1012.6
20260507071132 51 306 12.0 22.0 0.00 0.00 0.00 61 1012.6
20260507071031 51 342 12.0 22.0 0.00 0.00 0.00 61 1012.6
20260507070933 51 295 12.0 22.0 0.00 0.00 0.00 61 1012.6
20260507070825 51 309 12.0 22.0 0.00 0.00 0.00 61 1012.6
20260507070727 51 55 13.0 22.0 0.00 0.00 0.00 61 1012.6
20260507070621 51 15 13.0 22.0 0.00 0.00 0.00 60 1012.4
20260507070531 51 315 13.0 25.0 0.00 0.00 0.00 60 1012.4
20260507070418 51 318 13.0 25.0 0.00 0.00 0.00 60 1012.4
20260507070314 51 300 13.0 25.0 0.00 0.00 0.00 60 1012.4
20260507070210 52 303 14.0 25.0 0.00 0.00 0.00 60 1012.6
20260507070111 51 300 13.0 25.0 0.00 0.00 0.00 60 1012.4
20260507070013 52 306 14.0 25.0 0.00 0.00 0.00 60 1012.6
20260507065909 52 296 13.0 25.0 0.00 0.00 0.00 60 1012.6
20260507065801 52 290 13.0 25.0 0.00 0.00 0.00 60 1012.6
20260507065700 52 314 14.0 25.0 0.00 0.00 0.00 60 1012.6
20260507065557 52 15 13.0 25.0 0.00 0.00 0.00 60 1012.6
20260507065455 52 309 13.0 23.0 0.00 0.00 0.00 60 1012.6
20260507065356 52 289 13.0 23.0 0.00 0.00 0.00 60 1012.6
20260507065245 52 315 13.0 23.0 0.00 0.00 0.00 60 1012.6
20260507065145 52 288 13.0 23.0 0.00 0.00 0.00 60 1012.6
20260507065042 52 302 13.0 23.0 0.00 0.00 0.00 60 1012.6
20260507064940 52 288 13.0 23.0 0.00 0.00 0.00 60 1012.6
20260507064849 52 309 13.0 23.0 0.00 0.00 0.00 60 1012.6
20260507064736 52 313 13.0 23.0 0.00 0.00 0.00 60 1012.6
20260507064654 52 277 13.0 23.0 0.00 0.00 0.00 60 1012.6
20260507064539 52 317 13.0 23.0 0.00 0.00 0.00 60 1012.6
20260507064438 52 323 13.0 23.0 0.00 0.00 0.00 60 1012.6
20260507064336 52 317 13.0 23.0 0.00 0.00 0.00 60 1012.6
20260507064238 52 313 13.0 23.0 0.00 0.00 0.00 60 1012.6
20260507064135 52 292 13.0 23.0 0.00 0.00 0.00 60 1012.6
20260507064040 52 340 14.0 23.0 0.00 0.00 0.00 60 1012.6
20260507063936 52 327 14.0 22.0 0.00 0.00 0.00 60 1012.6
20260507063830 52 313 13.0 22.0 0.00 0.00 0.00 60 1012.6
20260507063725 52 308 13.0 22.0 0.00 0.00 0.00 60 1012.6
20260507063625 52 334 13.0 23.0 0.00 0.00 0.00 60 1012.6
20260507063529 52 323 13.0 23.0 0.00 0.00 0.00 60 1012.6
20260507063420 52 47 14.0 23.0 0.00 0.00 0.00 60 1012.7
20260507063321 52 314 14.0 23.0 0.00 0.00 0.00 60 1012.7
20260507063222 52 313 13.0 23.0 0.00 0.00 0.00 60 1012.6
20260507063114 52 306 13.0 23.0 0.00 0.00 0.00 60 1012.7
20260507063012 52 320 13.0 23.0 0.00 0.00 0.00 60 1012.7
20260507062907 52 300 13.0 23.0 0.00 0.00 0.00 60 1012.7
20260507062814 52 324 13.0 23.0 0.00 0.00 0.00 60 1012.7
20260507062707 52 301 13.0 23.0 0.00 0.00 0.00 60 1012.7
20260507062609 52 301 12.0 22.0 0.00 0.00 0.00 60 1012.7
20260507062510 52 294 13.0 20.0 0.00 0.00 0.00 60 1012.7
20260507062359 52 311 12.0 25.0 0.00 0.00 0.00 60 1012.7
20260507062258 52 294 13.0 25.0 0.00 0.00 0.00 60 1012.7
20260507062157 52 36 13.0 25.0 0.00 0.00 0.00 60 1012.7
20260507062046 52 311 13.0 25.0 0.00 0.00 0.00 60 1012.7
20260507061949 52 306 13.0 25.0 0.00 0.00 0.00 59 1012.7
20260507061844 52 285 13.0 25.0 0.00 0.00 0.00 59 1012.7
20260507061749 52 282 13.0 25.0 0.00 0.00 0.00 59 1012.7
20260507061653 52 322 13.0 25.0 0.00 0.00 0.00 59 1012.7
20260507061541 52 279 13.0 25.0 0.00 0.00 0.00 59 1012.7
20260507061441 52 346 13.0 23.0 0.00 0.00 0.00 59 1012.7
20260507061339 52 331 14.0 24.0 0.00 0.00 0.00 59 1012.7
20260507061240 52 349 14.0 24.0 0.00 0.00 0.00 59 1012.7
20260507061133 52 281 14.0 26.0 0.00 0.00 0.00 59 1012.9
20260507061032 52 338 14.0 26.0 0.00 0.00 0.00 59 1012.9
20260507060935 52 320 15.0 26.0 0.00 0.00 0.00 59 1012.9
20260507060835 52 304 14.0 26.0 0.00 0.00 0.00 59 1012.9
20260507060729 52 259 14.0 26.0 0.00 0.00 0.00 59 1012.9
20260507060641 52 302 14.0 26.0 0.00 0.00 0.00 59 1012.9
20260507060524 53 321 14.0 26.0 0.00 0.00 0.00 59 1013.0
20260507060425 53 333 13.0 26.0 0.00 0.00 0.00 59 1013.0
20260507060324 53 285 13.0 26.0 0.00 0.00 0.00 59 1013.0
20260507060224 53 309 13.0 26.0 0.00 0.00 0.00 59 1013.0
20260507060122 53 311 13.0 21.0 0.00 0.00 0.00 59 1013.0
20260507060014 53 301 13.0 21.0 0.00 0.00 0.00 59 1013.1
20260507055920 53 295 13.0 21.0 0.00 0.00 0.00 59 1013.1
20260507055810 53 343 13.0 21.0 0.00 0.00 0.00 59 1013.1
20260507055714 53 280 13.0 24.0 0.00 0.00 0.00 59 1012.9
20260507055606 53 299 13.0 24.0 0.00 0.00 0.00 59 1012.9
20260507055504 53 299 14.0 24.0 0.00 0.00 0.00 59 1012.9
20260507055400 53 308 14.0 24.0 0.00 0.00 0.00 58 1012.9
20260507055306 53 300 13.0 24.0 0.00 0.00 0.00 58 1012.9
20260507055201 53 36 13.0 24.0 0.00 0.00 0.00 58 1012.9
20260507055056 54 319 13.0 24.0 0.00 0.00 0.00 58 1012.9
20260507054953 54 300 13.0 24.0 0.00 0.00 0.00 58 1013.0
20260507054849 54 318 14.0 24.0 0.00 0.00 0.00 58 1013.0
20260507054751 54 335 14.0 24.0 0.00 0.00 0.00 58 1013.0
20260507054645 54 323 13.0 23.0 0.00 0.00 0.00 58 1013.0
20260507054547 54 317 13.0 24.0 0.00 0.00 0.00 57 1013.0
20260507054440 54 307 13.0 24.0 0.00 0.00 0.00 57 1013.0
20260507054336 54 336 13.0 24.0 0.00 0.00 0.00 57 1013.0
20260507054237 54 286 13.0 24.0 0.00 0.00 0.00 57 1012.7
20260507054131 54 305 12.0 24.0 0.00 0.00 0.00 57 1012.7
20260507054027 54 266 12.0 24.0 0.00 0.00 0.00 57 1012.7
20260507053922 54 295 12.0 24.0 0.00 0.00 0.00 57 1012.7
20260507053823 54 333 12.0 24.0 0.00 0.00 0.00 57 1012.8
20260507053727 55 286 13.0 24.0 0.00 0.00 0.00 57 1012.8
20260507053656 55 290 13.0 24.0 0.00 0.00 0.00 57 1012.8
20260507053516 55 13 13.0 24.0 0.00 0.00 0.00 57 1012.8
20260507053410 55 26 13.0 24.0 0.00 0.00 0.00 57 1012.8
20260507053308 55 334 14.0 24.0 0.00 0.00 0.00 57 1012.8
20260507053211 55 284 14.0 24.0 0.00 0.00 0.00 57 1012.9
20260507053111 55 14 14.0 24.0 0.00 0.00 0.00 56 1012.8
20260507053013 55 295 14.0 24.0 0.00 0.00 0.00 56 1012.8
20260507052908 55 313 14.0 24.0 0.00 0.00 0.00 56 1012.8
20260507052812 55 341 13.0 23.0 0.00 0.00 0.00 56 1012.9
20260507052704 55 321 13.0 23.0 0.00 0.00 0.00 56 1012.3
20260507052605 55 308 13.0 23.0 0.00 0.00 0.00 56 1012.3
20260507052503 55 13 13.0 27.0 0.00 0.00 0.00 56 1012.4
20260507052402 55 345 13.0 27.0 0.00 0.00 0.00 56 1012.4
20260507052310 55 288 13.0 27.0 0.00 0.00 0.00 56 1012.4
20260507052158 55 341 13.0 27.0 0.00 0.00 0.00 55 1012.4
20260507052058 56 250 13.0 27.0 0.00 0.00 0.00 55 1012.6
20260507051955 56 312 14.0 27.0 0.00 0.00 0.00 55 1012.6
20260507051854 56 48 14.0 27.0 0.00 0.00 0.00 55 1012.6
20260507051757 56 344 14.0 27.0 0.00 0.00 0.00 55 1012.6
20260507051658 56 275 14.0 27.0 0.00 0.00 0.00 55 1012.6
20260507051554 56 19 14.0 27.0 0.00 0.00 0.00 55 1012.6
20260507051455 56 300 14.0 22.0 0.00 0.00 0.00 55 1012.6
20260507051352 56 309 14.0 25.0 0.00 0.00 0.00 55 1012.6
20260507051243 56 301 15.0 25.0 0.00 0.00 0.00 55 1012.6
20260507051145 56 11 15.0 25.0 0.00 0.00 0.00 55 1012.8
20260507051046 56 309 15.0 25.0 0.00 0.00 0.00 54 1012.8
20260507050942 56 16 14.0 25.0 0.00 0.00 0.00 54 1012.8
20260507050839 56 337 14.0 25.0 0.00 0.00 0.00 54 1012.9
20260507050741 56 59 14.0 25.0 0.00 0.00 0.00 54 1012.9
20260507050639 56 327 14.0 25.0 0.00 0.00 0.00 53 1012.9
20260507050537 57 292 14.0 25.0 0.00 0.00 0.00 53 1013.0
20260507050435 57 334 14.0 25.0 0.00 0.00 0.00 53 1013.0
20260507050335 57 319 14.0 23.0 0.00 0.00 0.00 53 1013.0
20260507050236 57 46 13.0 23.0 0.00 0.00 0.00 53 1013.0
20260507050138 57 314 13.0 23.0 0.00 0.00 0.00 53 1013.1
20260507050038 57 297 13.0 23.0 0.00 0.00 0.00 53 1013.1
20260507045952 57 306 12.0 23.0 0.00 0.00 0.00 52 1013.1
20260507045912 58 319 11.0 23.0 0.00 0.00 0.00 52 1013.2
20260507045837 58 317 11.0 20.0 0.00 0.00 0.00 52 1012.3
20260507045754 58 298 11.0 19.0 0.00 0.00 0.00 52 1012.3
20260507045620 58 306 11.0 20.0 0.00 0.00 0.00 51 1012.3
20260507045543 58 321 12.0 20.0 0.00 0.00 0.00 51 1012.3
20260507045435 58 257 12.0 22.0 0.00 0.00 0.00 51 1012.4
20260507045324 58 11 12.0 22.0 0.00 0.00 0.00 51 1012.4
20260507045202 58 333 12.0 22.0 0.00 0.00 0.00 51 1012.4
20260507045045 58 335 13.0 22.0 0.00 0.00 0.00 51 1012.4
20260507044948 58 338 13.0 22.0 0.00 0.00 0.00 50 1012.4
20260507044857 58 315 14.0 22.0 0.00 0.00 0.00 50 1012.4
20260507044740 59 324 14.0 22.0 0.00 0.00 0.00 50 1012.6
20260507044635 59 263 14.0 22.0 0.00 0.00 0.00 50 1012.6
20260507044504 59 347 14.0 22.0 0.00 0.00 0.00 48 1012.7
20260507044412 59 311 13.0 22.0 0.00 0.00 0.00 48 1012.7
20260507044300 60 28 13.0 21.0 0.00 0.00 0.00 48 1012.8
20260507044157 60 311 13.0 21.0 0.00 0.00 0.00 48 1011.6
20260507044057 60 11 13.0 21.0 0.00 0.00 0.00 47 1011.6
20260507043956 60 303 13.0 21.0 0.00 0.00 0.00 46 1011.7
20260507043856 61 323 13.0 23.0 0.00 0.00 0.00 45 1011.7
20260507043754 61 332 12.0 23.0 0.00 0.00 0.00 45 1011.8
20260507043653 61 329 11.0 23.0 0.00 0.00 0.00 45 1011.9
20260507043556 61 288 11.0 23.0 0.00 0.00 0.00 45 1011.9
20260507043449 62 277 11.0 23.0 0.00 0.00 0.00 44 1012.0
20260507043347 62 338 11.0 23.0 0.00 0.00 0.00 42 1012.0
20260507043248 62 334 11.0 23.0 0.00 0.00 0.00 42 1012.1
20260507043141 63 332 10.0 23.0 0.00 0.00 0.00 41 1012.2
20260507043043 63 303 10.0 23.0 0.00 0.00 0.00 40 1012.3
20260507042942 64 355 9.0 23.0 0.00 0.00 0.00 36 1012.4
20260507042834 64 309 8.0 22.0 0.00 0.00 0.00 32 1012.6
20260507042742 65 324 8.0 22.0 0.00 0.00 0.00 32 1011.1
20260507042636 65 323 7.0 22.0 0.00 0.00 0.00 32 1011.2
20260507042531 66 278 5.0 22.0 0.00 0.00 0.00 31 1011.3
20260507042437 66 290 4.0 22.0 0.00 0.00 0.00 28 1011.4
20260507042328 66 296 3.0 12.0 0.00 0.00 0.00 27 1011.4
20260507042228 66 315 3.0 9.0 0.00 0.00 0.00 27 1011.4
20260507042127 66 292 3.0 9.0 0.00 0.00 0.00 27 1011.4
20260507042024 66 280 2.0 7.0 0.00 0.00 0.00 27 1011.4
20260507041927 66 273 2.0 7.0 0.00 0.00 0.00 27 1011.4
20260507041821 66 283 2.0 7.0 0.00 0.00 0.00 27 1011.4
20260507041726 66 277 2.0 7.0 0.00 0.00 0.00 27 1011.4
20260507041622 66 280 2.0 7.0 0.00 0.00 0.00 27 1011.4
20260507041521 66 262 2.0 7.0 0.00 0.00 0.00 27 1011.4
20260507041419 66 284 3.0 7.0 0.00 0.00 0.00 27 1011.4
20260507041320 66 275 3.0 7.0 0.00 0.00 0.00 27 1011.4
20260507041218 66 246 3.0 7.0 0.00 0.00 0.00 27 1011.6
20260507041111 66 263 3.0 7.0 0.00 0.00 0.00 27 1011.6
20260507041015 67 250 2.0 7.0 0.00 0.00 0.00 27 1011.7
20260507040909 67 242 2.0 7.0 0.00 0.00 0.00 27 1011.7
20260507040806 67 261 2.0 6.0 0.00 0.00 0.00 27 1011.7
20260507040736 67 262 2.0 6.0 0.00 0.00 0.00 27 1011.7
20260507040704 67 262 2.0 6.0 0.00 0.00 0.00 27 1011.7
20260507040554 67 259 2.0 6.0 0.00 0.00 0.00 27 1011.7
20260507040455 67 273 2.0 6.0 0.00 0.00 0.00 27 1011.7
20260507040356 67 250 1.0 6.0 0.00 0.00 0.00 27 1011.7
20260507040247 67 244 1.0 5.0 0.00 0.00 0.00 27 1011.7
20260507040149 67 272 2.0 5.0 0.00 0.00 0.00 26 1011.8
20260507040048 67 223 2.0 7.0 0.00 0.00 0.00 26 1011.8
20260507035849 67 260 2.0 7.0 0.00 0.00 0.00 26 1011.8
20260507035748 67 250 2.0 7.0 0.00 0.00 0.00 26 1011.8
20260507035637 68 217 2.0 7.0 0.00 0.00 0.00 25 1011.6
20260507035540 68 235 2.0 7.0 0.00 0.00 0.00 25 1011.6
20260507035446 68 255 3.0 7.0 0.00 0.00 0.00 25 1011.6
20260507035346 68 252 3.0 7.0 0.00 0.00 0.00 25 1011.7
20260507035240 68 227 3.0 7.0 0.00 0.00 0.00 25 1011.7
20260507035136 68 247 3.0 7.0 0.00 0.00 0.00 25 1011.7
20260507035042 68 230 3.0 7.0 0.00 0.00 0.00 25 1011.7
20260507034940 68 212 3.0 7.0 0.00 0.00 0.00 24 1011.7
20260507034837 68 236 3.0 7.0 0.00 0.00 0.00 24 1011.7
20260507034739 68 238 3.0 7.0 0.00 0.00 0.00 24 1011.7
20260507034632 68 257 3.0 7.0 0.00 0.00 0.00 24 1011.7
20260507034528 68 233 3.0 7.0 0.00 0.00 0.00 24 1011.7
20260507034427 68 223 3.0 7.0 0.00 0.00 0.00 24 1011.7
20260507034326 68 232 3.0 7.0 0.00 0.00 0.00 24 1011.7
20260507034228 68 252 3.0 7.0 0.00 0.00 0.00 24 1011.4
20260507034122 68 246 3.0 7.0 0.00 0.00 0.00 24 1011.4
20260507034020 68 228 3.0 7.0 0.00 0.00 0.00 24 1011.4
20260507033921 68 252 3.0 7.0 0.00 0.00 0.00 24 1011.4
20260507033821 68 236 3.0 7.0 0.00 0.00 0.00 24 1011.4
20260507033711 68 242 3.0 7.0 0.00 0.00 0.00 24 1011.4
20260507033611 69 243 3.0 7.0 0.00 0.00 0.00 24 1011.4
20260507033505 69 259 3.0 7.0 0.00 0.00 0.00 24 1011.4
20260507033406 69 237 3.0 7.0 0.00 0.00 0.00 24 1011.4
20260507033305 69 240 3.0 7.0 0.00 0.00 0.00 24 1011.4
20260507033206 69 275 3.0 7.0 0.00 0.00 0.00 24 1011.4
20260507033108 69 241 3.0 7.0 0.00 0.00 0.00 24 1011.4
20260507033004 69 232 2.0 7.0 0.00 0.00 0.00 24 1011.6
20260507032849 69 247 2.0 7.0 0.00 0.00 0.00 24 1011.6
20260507032749 69 255 2.0 7.0 0.00 0.00 0.00 24 1011.6
20260507032647 69 217 2.0 7.0 0.00 0.00 0.00 24 1011.2
20260507032554 69 277 2.0 7.0 0.00 0.00 0.00 24 1011.2
20260507032452 69 245 2.0 6.0 0.00 0.00 0.00 23 1011.2
20260507032347 69 256 2.0 6.0 0.00 0.00 0.00 23 1011.2
20260507032247 69 201 2.0 6.0 0.00 0.00 0.00 23 1011.2
20260507032144 69 242 2.0 6.0 0.00 0.00 0.00 23 1011.2
20260507032039 70 248 2.0 7.0 0.00 0.00 0.00 23 1011.3
20260507031942 70 234 3.0 9.0 0.00 0.00 0.00 22 1011.3
20260507031837 70 255 3.0 9.0 0.00 0.00 0.00 22 1011.3
20260507031736 70 224 3.0 9.0 0.00 0.00 0.00 22 1011.3
20260507031640 70 254 3.0 9.0 0.00 0.00 0.00 22 1011.3
20260507031546 70 241 3.0 9.0 0.00 0.00 0.00 22 1011.4
20260507031441 70 289 4.0 9.0 0.00 0.00 0.00 22 1011.4
20260507031339 70 226 4.0 9.0 0.00 0.00 0.00 22 1011.4
20260507031238 70 243 4.0 9.0 0.00 0.00 0.00 22 1011.4
20260507031136 71 249 4.0 9.0 0.00 0.00 0.00 21 1011.6
20260507031036 71 219 4.0 9.0 0.00 0.00 0.00 21 1011.6
20260507030941 71 231 4.0 9.0 0.00 0.00 0.00 21 1011.6
20260507030826 71 240 3.0 9.0 0.00 0.00 0.00 21 1011.6
20260507030720 71 235 3.0 9.0 0.00 0.00 0.00 21 1011.6
20260507030618 70 246 3.0 9.0 0.00 0.00 0.00 21 1011.6
20260507030512 70 257 3.0 9.0 0.00 0.00 0.00 21 1011.6
20260507030420 70 248 3.0 9.0 0.00 0.00 0.00 21 1011.6
20260507030311 70 238 3.0 9.0 0.00 0.00 0.00 21 1011.6
20260507030211 70 236 2.0 9.0 0.00 0.00 0.00 21 1011.6
20260507030112 70 246 2.0 8.0 0.00 0.00 0.00 21 1011.6
20260507030009 70 248 2.0 8.0 0.00 0.00 0.00 21 1011.6
20260507025914 70 192 2.0 7.0 0.00 0.00 0.00 22 1011.6
20260507025815 70 245 2.0 7.0 0.00 0.00 0.00 22 1011.6
20260507025708 70 234 2.0 7.0 0.00 0.00 0.00 22 1011.2
20260507025609 70 226 2.0 7.0 0.00 0.00 0.00 22 1011.2
20260507025513 70 249 2.0 7.0 0.00 0.00 0.00 22 1011.2
20260507025415 70 237 2.0 7.0 0.00 0.00 0.00 22 1011.2
20260507025301 70 215 2.0 7.0 0.00 0.00 0.00 22 1011.2
20260507025201 70 244 2.0 7.0 0.00 0.00 0.00 22 1011.2
20260507025054 71 242 3.0 7.0 0.00 0.00 0.00 22 1011.3
20260507024952 71 242 3.0 7.0 0.00 0.00 0.00 22 1011.3
20260507024844 71 277 3.0 7.0 0.00 0.00 0.00 22 1011.3
20260507024744 71 271 2.0 7.0 0.00 0.00 0.00 22 1011.3
20260507024648 71 244 2.0 7.0 0.00 0.00 0.00 22 1011.3
20260507024539 71 259 2.0 7.0 0.00 0.00 0.00 22 1011.3
20260507024432 71 243 2.0 7.0 0.00 0.00 0.00 22 1011.3
20260507024333 71 263 2.0 7.0 0.00 0.00 0.00 22 1011.3
20260507024237 71 284 2.0 7.0 0.00 0.00 0.00 22 1011.0
20260507024132 71 241 2.0 7.0 0.00 0.00 0.00 22 1011.0
20260507024033 71 247 2.0 7.0 0.00 0.00 0.00 22 1011.0
20260507023923 71 237 2.0 7.0 0.00 0.00 0.00 21 1011.0
20260507023826 71 250 2.0 7.0 0.00 0.00 0.00 21 1011.1
20260507023722 71 269 2.0 7.0 0.00 0.00 0.00 21 1011.1
20260507023623 71 259 2.0 7.0 0.00 0.00 0.00 21 1011.1
20260507023529 71 234 2.0 7.0 0.00 0.00 0.00 21 1011.1
20260507023413 71 217 2.0 7.0 0.00 0.00 0.00 21 1011.1
20260507023313 72 230 2.0 7.0 0.00 0.00 0.00 21 1011.1
20260507023209 72 244 2.0 7.0 0.00 0.00 0.00 21 1011.2
20260507023111 72 247 2.0 7.0 0.00 0.00 0.00 20 1011.2
20260507023007 72 245 2.0 7.0 0.00 0.00 0.00 20 1011.2
20260507022902 72 236 3.0 8.0 0.00 0.00 0.00 20 1011.2
20260507022810 72 256 3.0 8.0 0.00 0.00 0.00 20 1011.2
20260507022705 72 242 3.0 8.0 0.00 0.00 0.00 20 1010.9
20260507022603 72 173 3.0 8.0 0.00 0.00 0.00 20 1010.9
20260507022506 72 268 3.0 8.0 0.00 0.00 0.00 20 1010.9
20260507022354 72 239 3.0 8.0 0.00 0.00 0.00 20 1010.9
20260507022256 72 224 3.0 8.0 0.00 0.00 0.00 20 1010.9
20260507022156 72 220 3.0 8.0 0.00 0.00 0.00 20 1010.9
20260507022047 73 267 3.0 8.0 0.00 0.00 0.00 19 1010.9
20260507021949 73 247 3.0 7.0 0.00 0.00 0.00 19 1010.9
20260507021851 73 238 3.0 7.0 0.00 0.00 0.00 19 1010.9
20260507021748 73 250 3.0 7.0 0.00 0.00 0.00 19 1010.9
20260507021646 73 237 2.0 7.0 0.00 0.00 0.00 19 1010.9
20260507021545 73 247 2.0 7.0 0.00 0.00 0.00 19 1010.9
20260507021438 73 261 2.0 7.0 0.00 0.00 0.00 19 1010.9
20260507021348 73 244 2.0 5.0 0.00 0.00 0.00 19 1010.9
20260507021238 73 238 2.0 5.0 0.00 0.00 0.00 19 1011.0
20260507021138 73 248 2.0 6.0 0.00 0.00 0.00 19 1011.2
20260507021035 73 267 2.0 6.0 0.00 0.00 0.00 19 1011.3
20260507020936 73 255 2.0 6.0 0.00 0.00 0.00 18 1011.3
20260507020838 73 257 2.0 6.0 0.00 0.00 0.00 18 1011.3
20260507020746 73 271 2.0 6.0 0.00 0.00 0.00 18 1011.3
20260507020636 73 244 2.0 6.0 0.00 0.00 0.00 18 1011.3
20260507020536 73 234 2.0 6.0 0.00 0.00 0.00 18 1011.3
20260507020439 73 209 2.0 6.0 0.00 0.00 0.00 17 1011.4
20260507020335 73 248 2.0 6.0 0.00 0.00 0.00 17 1011.4
20260507020236 74 234 2.0 7.0 0.00 0.00 0.00 17 1011.4
20260507020136 74 228 2.0 7.0 0.00 0.00 0.00 17 1011.4
20260507020029 74 244 1.0 7.0 0.00 0.00 0.00 17 1011.4
20260507015924 74 234 1.0 7.0 0.00 0.00 0.00 17 1011.4
20260507015822 74 233 1.0 7.0 0.00 0.00 0.00 17 1011.4
20260507015720 74 241 1.0 7.0 0.00 0.00 0.00 17 1011.0
20260507015616 74 246 1.0 7.0 0.00 0.00 0.00 17 1011.0
20260507015514 74 252 1.0 7.0 0.00 0.00 0.00 17 1011.0
20260507015416 74 219 1.0 7.0 0.00 0.00 0.00 17 1011.0
20260507015312 74 212 1.0 6.0 0.00 0.00 0.00 17 1011.1
20260507015209 75 244 1.0 5.0 0.00 0.00 0.00 17 1011.1
20260507015112 75 240 1.0 5.0 0.00 0.00 0.00 17 1011.1
20260507015011 75 256 1.0 5.0 0.00 0.00 0.00 16 1011.1
20260507014909 75 237 1.0 5.0 0.00 0.00 0.00 16 1011.2
20260507014809 75 254 1.0 4.0 0.00 0.00 0.00 16 1011.2
20260507014712 75 257 1.0 4.0 0.00 0.00 0.00 16 1011.2
20260507014611 76 251 1.0 4.0 0.00 0.00 0.00 16 1011.3
20260507014512 76 278 1.0 4.0 0.00 0.00 0.00 16 1011.3
20260507014414 76 229 1.0 4.0 0.00 0.00 0.00 16 1011.3
20260507014301 76 236 2.0 5.0 0.00 0.00 0.00 16 1011.3
20260507014202 76 263 2.0 9.0 0.00 0.00 0.00 15 1010.9
20260507014101 76 247 2.0 9.0 0.00 0.00 0.00 15 1011.0
20260507014004 76 248 3.0 9.0 0.00 0.00 0.00 15 1011.0
20260507013847 76 267 3.0 9.0 0.00 0.00 0.00 15 1011.0
20260507013747 77 242 3.0 9.0 0.00 0.00 0.00 15 1011.0
20260507013645 77 261 4.0 9.0 0.00 0.00 0.00 15 1011.0
20260507013552 77 262 4.0 9.0 0.00 0.00 0.00 15 1011.1
20260507013441 77 274 5.0 9.0 0.00 0.00 0.00 15 1011.1
20260507013336 77 229 5.0 9.0 0.00 0.00 0.00 15 1011.1
20260507013237 77 265 5.0 9.0 0.00 0.00 0.00 15 1011.1
20260507013137 77 250 5.0 9.0 0.00 0.00 0.00 14 1011.2
20260507013037 77 319 4.0 9.0 0.00 0.00 0.00 14 1011.2
20260507012944 78 247 4.0 9.0 0.00 0.00 0.00 14 1011.2
20260507012824 78 283 4.0 9.0 0.00 0.00 0.00 14 1011.2
20260507012728 78 254 4.0 9.0 0.00 0.00 0.00 14 1010.8
20260507012622 78 244 4.0 10.0 0.00 0.00 0.00 14 1010.8
20260507012526 78 269 4.0 10.0 0.00 0.00 0.00 14 1010.8
20260507012423 78 250 5.0 10.0 0.00 0.00 0.00 14 1010.8
20260507012319 78 246 5.0 10.0 0.00 0.00 0.00 15 1010.8
20260507012221 78 265 5.0 10.0 0.00 0.00 0.00 15 1010.9
20260507012115 78 267 5.0 10.0 0.00 0.00 0.00 15 1010.9
20260507012017 78 269 6.0 10.0 0.00 0.00 0.00 15 1010.9
20260507011922 78 253 6.0 11.0 0.00 0.00 0.00 15 1010.9
20260507011758 78 273 6.0 12.0 0.00 0.00 0.00 15 1010.9
20260507011701 78 258 6.0 14.0 0.00 0.00 0.00 15 1010.9
20260507011558 78 273 6.0 14.0 0.00 0.00 0.00 15 1010.9
20260507011502 78 269 6.0 14.0 0.00 0.00 0.00 15 1010.9
20260507011356 78 227 6.0 14.0 0.00 0.00 0.00 15 1010.9
20260507011257 78 211 6.0 14.0 0.00 0.00 0.00 14 1010.9
20260507011152 79 225 6.0 14.0 0.00 0.00 0.00 14 1011.3
20260507011045 79 268 7.0 14.0 0.00 0.00 0.00 14 1011.3
20260507010946 79 239 6.0 14.0 0.00 0.00 0.00 14 1011.3
20260507010854 79 279 6.0 14.0 0.00 0.00 0.00 14 1011.4
20260507010744 79 231 6.0 14.0 0.00 0.00 0.00 14 1011.4
20260507010645 79 270 6.0 11.0 0.00 0.00 0.00 15 1011.4
20260507010537 79 255 6.0 12.0 0.00 0.00 0.00 14 1011.4
20260507010438 79 236 7.0 12.0 0.00 0.00 0.00 14 1011.4
20260507010338 79 281 7.0 12.0 0.00 0.00 0.00 14 1011.4
20260507010233 79 260 7.0 12.0 0.00 0.00 0.00 14 1011.4
20260507010129 79 260 7.0 18.0 0.00 0.00 0.00 14 1011.4
20260507010030 79 230 7.0 18.0 0.00 0.00 0.00 14 1011.4
20260507005930 79 268 8.0 18.0 0.00 0.00 0.00 14 1011.4
20260507005828 79 212 8.0 18.0 0.00 0.00 0.00 14 1011.4
20260507005712 79 238 8.0 18.0 0.00 0.00 0.00 14 1011.0
20260507005612 79 243 8.0 18.0 0.00 0.00 0.00 14 1011.0
20260507005511 79 229 8.0 18.0 0.00 0.00 0.00 14 1011.0
20260507005414 79 257 8.0 18.0 0.00 0.00 0.00 14 1011.0
20260507005312 79 246 9.0 18.0 0.00 0.00 0.00 14 1011.0
20260507005211 79 236 8.0 18.0 0.00 0.00 0.00 14 1011.0
20260507005105 79 248 9.0 18.0 0.00 0.00 0.00 14 1011.0
20260507005010 80 262 9.0 18.0 0.00 0.00 0.00 13 1011.0
20260507004906 80 248 8.0 18.0 0.00 0.00 0.00 14 1011.1
20260507004811 80 241 8.0 18.0 0.00 0.00 0.00 14 1011.1
20260507004700 80 215 8.0 18.0 0.00 0.00 0.00 14 1011.1
20260507004603 80 232 9.0 20.0 0.00 0.00 0.00 13 1011.1
20260507004454 80 247 9.0 20.0 0.00 0.00 0.00 13 1011.1
20260507004351 80 260 8.0 20.0 0.00 0.00 0.00 13 1011.1
20260507004247 80 251 9.0 20.0 0.00 0.00 0.00 13 1011.1
20260507004148 80 169 9.0 20.0 0.00 0.00 0.00 13 1010.9
20260507004047 80 231 9.0 20.0 0.00 0.00 0.00 13 1010.9
20260507003942 80 213 8.0 20.0 0.00 0.00 0.00 13 1010.9
20260507003837 80 209 9.0 20.0 0.00 0.00 0.00 13 1010.9
20260507003741 80 246 10.0 20.0 0.00 0.00 0.00 13 1010.9
20260507003640 80 242 9.0 20.0 0.00 0.00 0.00 13 1010.9
20260507003541 80 246 9.0 20.0 0.00 0.00 0.00 13 1010.9
20260507003440 80 231 9.0 20.0 0.00 0.00 0.00 12 1010.8
20260507003345 80 280 9.0 20.0 0.00 0.00 0.00 12 1010.9
20260507003234 80 240 9.0 20.0 0.00 0.00 0.00 12 1010.9
20260507003138 80 250 8.0 20.0 0.00 0.00 0.00 12 1010.9
20260507003034 80 293 8.0 20.0 0.00 0.00 0.00 12 1010.9
20260507002942 80 240 8.0 20.0 0.00 0.00 0.00 12 1010.9
20260507002839 80 276 7.0 20.0 0.00 0.00 0.00 12 1010.9
20260507002734 80 162 7.0 14.0 0.00 0.00 0.00 13 1010.9
20260507002630 80 265 7.0 14.0 0.00 0.00 0.00 12 1010.9
20260507002525 80 207 7.0 14.0 0.00 0.00 0.00 12 1011.0
20260507002429 80 227 7.0 14.0 0.00 0.00 0.00 13 1011.0
20260507002324 80 225 8.0 15.0 0.00 0.00 0.00 13 1011.0
20260507002228 80 270 8.0 18.0 0.00 0.00 0.00 13 1010.9
20260507002118 80 216 8.0 18.0 0.00 0.00 0.00 13 1010.9
20260507002015 80 234 8.0 18.0 0.00 0.00 0.00 13 1010.9
20260507001915 80 246 9.0 18.0 0.00 0.00 0.00 13 1010.9
20260507001809 80 246 9.0 18.0 0.00 0.00 0.00 13 1010.9
20260507001714 80 281 9.0 18.0 0.00 0.00 0.00 13 1010.9
20260507001613 80 267 9.0 18.0 0.00 0.00 0.00 13 1010.9
20260507001512 80 250 10.0 18.0 0.00 0.00 0.00 13 1010.9
20260507001409 80 290 10.0 19.0 0.00 0.00 0.00 13 1010.9
20260507001311 80 233 10.0 24.0 0.00 0.00 0.00 13 1010.9
20260507001210 80 235 10.0 24.0 0.00 0.00 0.00 13 1010.7
20260507001108 80 246 11.0 24.0 0.00 0.00 0.00 13 1010.7
20260507001011 80 223 10.0 24.0 0.00 0.00 0.00 13 1010.7
20260507000907 80 265 10.0 24.0 0.00 0.00 0.00 13 1010.7
20260507000812 80 270 10.0 24.0 0.00 0.00 0.00 13 1010.7
20260507000708 80 246 10.0 24.0 0.00 0.00 0.00 13 1010.7
20260507000604 80 242 11.0 24.0 0.00 0.00 0.00 13 1010.7
20260507000459 80 273 10.0 24.0 0.00 0.00 0.00 12 1010.7
20260507000357 81 211 10.0 23.0 0.00 0.00 0.00 12 1010.7
20260507000256 81 234 9.0 21.0 0.00 0.00 0.00 12 1010.8
20260507000157 81 244 9.0 21.0 0.00 0.00 0.00 12 1010.8
20260507000051 81 223 9.0 19.0 0.00 0.00 0.00 12 1010.8
20260506235947 81 246 10.0 24.0 0.00 0.00 0.00 12 1010.8
20260506235850 81 246 10.0 24.0 0.00 0.00 0.00 12 1010.8
20260506235746 81 253 10.0 24.0 0.00 0.00 0.00 12 1010.8
20260506235650 81 180 11.0 24.0 0.00 0.00 0.00 12 1010.6
20260506235545 81 239 10.0 24.0 0.00 0.00 0.00 12 1010.6
20260506235446 81 167 11.0 24.0 0.00 0.00 0.00 12 1010.5
20260506235345 81 229 11.0 24.0 0.00 0.00 0.00 12 1010.5
20260506235246 80 284 11.0 24.0 0.00 0.00 0.00 12 1010.5
20260506235141 81 238 11.0 24.0 0.00 0.00 0.00 12 1010.5
20260506235039 81 236 12.0 24.0 0.00 0.00 0.00 12 1010.6
20260506234935 81 254 11.0 22.0 0.00 0.00 0.00 12 1010.6
20260506234833 81 244 11.0 22.0 0.00 0.00 0.00 12 1010.6
20260506234733 81 244 11.0 22.0 0.00 0.00 0.00 12 1010.6
20260506234626 81 206 11.0 22.0 0.00 0.00 0.00 12 1010.6
20260506234527 81 235 11.0 26.0 0.00 0.00 0.00 12 1010.6
20260506234428 81 245 11.0 26.0 0.00 0.00 0.00 12 1010.6
20260506234321 81 217 11.0 26.0 0.00 0.00 0.00 12 1010.6
20260506234227 81 240 11.0 26.0 0.00 0.00 0.00 12 1010.6
20260506234122 81 234 11.0 26.0 0.00 0.00 0.00 12 1010.6
20260506234022 81 244 11.0 26.0 0.00 0.00 0.00 12 1010.6
20260506233919 81 255 11.0 26.0 0.00 0.00 0.00 12 1010.6
20260506233815 81 225 11.0 26.0 0.00 0.00 0.00 12 1010.6
20260506233709 81 242 11.0 26.0 0.00 0.00 0.00 12 1010.6
20260506233606 81 233 11.0 26.0 0.00 0.00 0.00 12 1010.6
20260506233505 81 236 11.0 21.0 0.00 0.00 0.00 12 1010.6
20260506233404 81 220 11.0 21.0 0.00 0.00 0.00 12 1010.6
20260506233305 81 232 11.0 21.0 0.00 0.00 0.00 11 1010.6
20260506233203 81 219 10.0 22.0 0.00 0.00 0.00 11 1010.6
20260506233103 81 195 10.0 22.0 0.00 0.00 0.00 11 1010.6
20260506233004 81 227 10.0 22.0 0.00 0.00 0.00 11 1010.7
20260506232901 81 265 10.0 22.0 0.00 0.00 0.00 11 1010.7
20260506232806 81 230 9.0 22.0 0.00 0.00 0.00 11 1010.7
20260506232639 81 232 9.0 22.0 0.00 0.00 0.00 11 1010.2
20260506232532 81 187 9.0 22.0 0.00 0.00 0.00 11 1010.2
20260506232433 82 235 9.0 22.0 0.00 0.00 0.00 11 1010.3
20260506232331 82 257 9.0 22.0 0.00 0.00 0.00 12 1010.3
20260506232231 82 296 9.0 22.0 0.00 0.00 0.00 12 1010.3
20260506232131 82 255 9.0 21.0 0.00 0.00 0.00 13 1010.3
20260506232029 82 243 9.0 22.0 0.00 0.00 0.00 12 1010.3
20260506231934 82 235 9.0 22.0 0.00 0.00 0.00 12 1010.3
20260506231817 82 232 9.0 22.0 0.00 0.00 0.00 12 1010.3
20260506231719 82 237 9.0 22.0 0.00 0.00 0.00 12 1010.3
20260506231612 82 211 9.0 22.0 0.00 0.00 0.00 12 1010.3
20260506231504 82 250 9.0 22.0 0.00 0.00 0.00 12 1010.3
20260506231404 82 223 10.0 22.0 0.00 0.00 0.00 12 1010.3
20260506231302 82 245 10.0 22.0 0.00 0.00 0.00 12 1010.3
20260506231206 82 277 10.0 22.0 0.00 0.00 0.00 12 1010.2
20260506231104 82 261 9.0 22.0 0.00 0.00 0.00 12 1010.2
20260506231005 82 104 9.0 18.0 0.00 0.00 0.00 12 1010.2
20260506230904 82 201 9.0 18.0 0.00 0.00 0.00 11 1010.1
20260506230800 82 237 9.0 18.0 0.00 0.00 0.00 12 1010.1
20260506230702 82 206 9.0 20.0 0.00 0.00 0.00 12 1010.1
20260506230600 82 226 9.0 20.0 0.00 0.00 0.00 11 1010.1
20260506230453 82 191 9.0 20.0 0.00 0.00 0.00 11 1010.1
20260506230348 82 217 8.0 20.0 0.00 0.00 0.00 12 1010.2
20260506230241 82 190 8.0 20.0 0.00 0.00 0.00 11 1010.1
20260506230145 82 264 8.0 21.0 0.00 0.00 0.00 12 1010.2
20260506230115 82 336 9.0 21.0 0.00 0.00 0.00 12 1010.1
20260506225938 82 229 9.0 21.0 0.00 0.00 0.00 12 1010.1
20260506225844 82 265 9.0 21.0 0.00 0.00 0.00 11 1010.1
20260506225746 82 203 10.0 21.0 0.00 0.00 0.00 12 1010.1
20260506225639 82 256 10.0 21.0 0.00 0.00 0.00 11 1010.0
20260506225542 82 238 10.0 21.0 0.00 0.00 0.00 12 1010.1
20260506225434 82 276 10.0 21.0 0.00 0.00 0.00 12 1010.1
20260506225332 82 254 10.0 21.0 0.00 0.00 0.00 11 1010.0
20260506225227 82 126 10.0 21.0 0.00 0.00 0.00 11 1010.0
20260506225127 82 236 9.0 20.0 0.00 0.00 0.00 12 1010.0
20260506225019 82 281 9.0 20.0 0.00 0.00 0.00 11 1010.0
20260506224920 82 244 10.0 20.0 0.00 0.00 0.00 12 1010.0
20260506224812 82 277 9.0 20.0 0.00 0.00 0.00 11 1010.1
20260506224711 82 251 9.0 20.0 0.00 0.00 0.00 11 1010.1
20260506224612 82 245 9.0 16.0 0.00 0.00 0.00 11 1010.1
20260506224508 82 180 9.0 16.0 0.00 0.00 0.00 12 1010.1
20260506224413 82 252 9.0 16.0 0.00 0.00 0.00 12 1010.1
20260506224310 82 234 9.0 16.0 0.00 0.00 0.00 12 1010.1
20260506224213 82 235 9.0 18.0 0.00 0.00 0.00 12 1010.1
20260506224108 82 239 10.0 20.0 0.00 0.00 0.00 12 1010.1
20260506224008 82 148 10.0 20.0 0.00 0.00 0.00 12 1010.0
20260506223914 82 259 10.0 20.0 0.00 0.00 0.00 12 1010.0
20260506223809 82 238 10.0 20.0 0.00 0.00 0.00 12 1010.0
20260506223709 82 288 11.0 20.0 0.00 0.00 0.00 12 1010.0
20260506223615 81 234 11.0 20.0 0.00 0.00 0.00 12 1010.0
20260506223515 81 250 12.0 21.0 0.00 0.00 0.00 11 1009.9
20260506223411 82 248 11.0 21.0 0.00 0.00 0.00 12 1010.0
20260506223309 81 244 12.0 21.0 0.00 0.00 0.00 11 1009.9
20260506223206 82 257 11.0 21.0 0.00 0.00 0.00 11 1010.0
20260506223104 82 213 11.0 21.0 0.00 0.00 0.00 11 1010.0
20260506223006 82 209 11.0 21.0 0.00 0.00 0.00 12 1010.0
20260506222900 82 253 11.0 21.0 0.00 0.00 0.00 11 1010.0
20260506222803 82 167 11.0 21.0 0.00 0.00 0.00 12 1010.0
20260506222659 82 209 10.0 21.0 0.00 0.00 0.00 12 1010.2
20260506222555 82 234 10.0 21.0 0.00 0.00 0.00 12 1010.2
20260506222454 82 292 9.0 16.0 0.00 0.00 0.00 12 1010.2
20260506222353 82 240 9.0 16.0 0.00 0.00 0.00 11 1010.2
20260506222251 82 238 9.0 16.0 0.00 0.00 0.00 12 1010.2
20260506222155 82 207 9.0 16.0 0.00 0.00 0.00 12 1010.2
20260506222113 81 229 9.0 16.0 0.00 0.00 0.00 12 1010.1
20260506221953 81 188 9.0 16.0 0.00 0.00 0.00 11 1010.1
20260506221855 81 252 9.0 16.0 0.00 0.00 0.00 12 1010.1
20260506221748 81 259 8.0 20.0 0.00 0.00 0.00 12 1010.1
20260506221644 81 271 8.0 22.0 0.00 0.00 0.00 12 1010.1
20260506221543 81 267 8.0 22.0 0.00 0.00 0.00 12 1010.1
20260506221442 81 235 9.0 22.0 0.00 0.00 0.00 12 1010.1
20260506221338 81 213 9.0 22.0 0.00 0.00 0.00 12 1010.1
20260506221238 82 244 9.0 22.0 0.00 0.00 0.00 12 1010.2
20260506221144 82 268 9.0 22.0 0.00 0.00 0.00 12 1009.6
20260506221041 82 265 9.0 22.0 0.00 0.00 0.00 12 1009.6
20260506220944 82 291 9.0 22.0 0.00 0.00 0.00 12 1009.6
20260506220840 82 254 8.0 22.0 0.00 0.00 0.00 12 1009.6
20260506220738 82 256 8.0 22.0 0.00 0.00 0.00 11 1009.6
20260506220637 82 246 8.0 18.0 0.00 0.00 0.00 12 1009.6
20260506220535 82 221 7.0 16.0 0.00 0.00 0.00 12 1009.7
20260506220433 82 240 7.0 16.0 0.00 0.00 0.00 12 1009.7
20260506220342 82 259 7.0 16.0 0.00 0.00 0.00 12 1009.7
20260506220235 82 257 7.0 15.0 0.00 0.00 0.00 12 1009.7
20260506220133 82 246 7.0 15.0 0.00 0.00 0.00 12 1009.7
20260506220037 82 242 8.0 15.0 0.00 0.00 0.00 12 1009.7
20260506215928 82 223 8.0 15.0 0.00 0.00 0.00 12 1009.7
20260506215823 82 228 8.0 15.0 0.00 0.00 0.00 12 1009.7
20260506215716 82 240 8.0 15.0 0.00 0.00 0.00 12 1009.9
20260506215610 82 267 8.0 15.0 0.00 0.00 0.00 12 1009.9
20260506215508 82 240 8.0 15.0 0.00 0.00 0.00 12 1009.8
20260506215407 82 209 8.0 15.0 0.00 0.00 0.00 12 1009.8
20260506215308 81 274 8.0 15.0 0.00 0.00 0.00 12 1009.8
20260506215206 81 302 8.0 15.0 0.00 0.00 0.00 12 1009.8
20260506215100 81 241 8.0 15.0 0.00 0.00 0.00 11 1009.7
20260506215004 81 292 8.0 15.0 0.00 0.00 0.00 12 1009.7
20260506214854 81 262 9.0 18.0 0.00 0.00 0.00 12 1009.8
20260506214756 81 298 9.0 18.0 0.00 0.00 0.00 12 1009.8
20260506214652 81 270 9.0 19.0 0.00 0.00 0.00 12 1009.8
20260506214552 81 268 9.0 19.0 0.00 0.00 0.00 12 1009.8
20260506214443 81 240 10.0 19.0 0.00 0.00 0.00 12 1009.8
20260506214346 81 269 9.0 19.0 0.00 0.00 0.00 12 1009.8
20260506214243 81 268 9.0 19.0 0.00 0.00 0.00 12 1009.8
20260506214145 81 218 9.0 19.0 0.00 0.00 0.00 12 1009.8
20260506214036 81 236 9.0 19.0 0.00 0.00 0.00 12 1009.8
20260506213943 81 250 8.0 19.0 0.00 0.00 0.00 12 1009.8
20260506213835 81 148 8.0 19.0 0.00 0.00 0.00 12 1009.8
20260506213736 81 231 8.0 19.0 0.00 0.00 0.00 12 1009.8
20260506213638 81 296 8.0 19.0 0.00 0.00 0.00 12 1009.8
20260506213535 81 186 8.0 19.0 0.00 0.00 0.00 12 1009.9
20260506213436 82 263 8.0 16.0 0.00 0.00 0.00 12 1009.9
20260506213342 82 268 8.0 16.0 0.00 0.00 0.00 12 1009.9
20260506213233 82 219 8.0 16.0 0.00 0.00 0.00 12 1009.9
20260506213128 81 240 8.0 16.0 0.00 0.00 0.00 12 1009.9
20260506213027 81 238 8.0 16.0 0.00 0.00 0.00 12 1009.8
20260506212933 81 267 9.0 16.0 0.00 0.00 0.00 12 1009.8
20260506212828 81 264 8.0 16.0 0.00 0.00 0.00 12 1009.8
20260506212730 81 302 8.0 16.0 0.00 0.00 0.00 12 1010.0
20260506212622 82 271 8.0 16.0 0.00 0.00 0.00 12 1010.1
20260506212518 82 261 8.0 15.0 0.00 0.00 0.00 12 1010.2
20260506212413 82 241 8.0 15.0 0.00 0.00 0.00 11 1010.1
20260506212315 82 243 8.0 15.0 0.00 0.00 0.00 12 1010.2
20260506212208 82 237 8.0 13.0 0.00 0.00 0.00 12 1010.2
20260506212110 82 284 8.0 13.0 0.00 0.00 0.00 12 1010.2
20260506212010 82 161 8.0 13.0 0.00 0.00 0.00 11 1010.1
20260506211908 82 188 8.0 13.0 0.00 0.00 0.00 13 1010.1
20260506211814 81 282 8.0 13.0 0.00 0.00 0.00 13 1010.1
20260506211711 81 239 8.0 13.0 0.00 0.00 0.00 12 1010.0
20260506211613 81 214 8.0 12.0 0.00 0.00 0.00 12 1010.0
20260506211509 81 244 8.0 14.0 0.00 0.00 0.00 12 1010.0
20260506211419 81 239 8.0 16.0 0.00 0.00 0.00 12 1010.0
20260506211307 81 236 8.0 16.0 0.00 0.00 0.00 13 1010.0
20260506211210 81 300 8.0 16.0 0.00 0.00 0.00 14 1010.2
20260506211108 81 266 8.0 16.0 0.00 0.00 0.00 14 1010.2
20260506211012 81 285 8.0 16.0 0.00 0.00 0.00 13 1010.1
20260506210912 81 216 8.0 16.0 0.00 0.00 0.00 13 1010.1
20260506210803 81 252 8.0 16.0 0.00 0.00 0.00 12 1010.1
20260506210705 81 240 8.0 16.0 0.00 0.00 0.00 13 1010.1
20260506210556 81 219 8.0 16.0 0.00 0.00 0.00 12 1010.1
20260506210437 81 260 7.0 16.0 0.00 0.00 0.00 14 1010.1
20260506210341 81 239 7.0 14.0 0.00 0.00 0.00 14 1010.0
20260506210217 80 288 8.0 14.0 0.00 0.00 0.00 12 1010.0
20260506210117 80 251 8.0 14.0 0.00 0.00 0.00 13 1010.0
20260506210017 81 181 8.0 15.0 0.00 0.00 0.00 12 1010.0
20260506205911 81 200 8.0 15.0 0.00 0.00 0.00 14 1010.0
20260506205813 80 207 8.0 15.0 0.00 0.00 0.00 14 1009.9
20260506205710 80 265 8.0 15.0 0.00 0.00 0.00 14 1010.1
20260506205611 80 283 8.0 15.0 0.00 0.00 0.00 13 1010.1
20260506205511 80 315 9.0 18.0 0.00 0.00 0.00 13 1010.1
20260506205411 80 288 10.0 18.0 0.00 0.00 0.00 12 1010.1
20260506205306 80 289 9.0 18.0 0.00 0.00 0.00 13 1010.1
20260506205202 80 203 9.0 18.0 0.00 0.00 0.00 14 1010.2
20260506205104 80 278 10.0 18.0 0.00 0.00 0.00 14 1010.2
20260506205010 80 279 10.0 21.0 0.00 0.00 0.00 13 1010.1
20260506204852 80 225 9.0 21.0 0.00 0.00 0.00 13 1010.2
20260506204739 81 260 9.0 21.0 0.00 0.00 0.00 13 1010.2
20260506204641 81 285 8.0 21.0 0.00 0.00 0.00 13 1010.3
20260506204538 81 221 8.0 21.0 0.00 0.00 0.00 13 1010.3
20260506204437 81 250 7.0 21.0 0.00 0.00 0.00 13 1010.3
20260506204337 81 279 7.0 21.0 0.00 0.00 0.00 13 1010.3
20260506204231 81 203 7.0 21.0 0.00 0.00 0.00 13 1010.7
20260506204132 81 205 6.0 21.0 0.00 0.00 0.00 13 1010.7
20260506204023 81 203 6.0 13.0 0.00 0.00 0.00 13 1010.7
20260506203925 81 230 6.0 12.0 0.00 0.00 0.00 13 1010.7
20260506203826 81 198 6.0 12.0 0.00 0.00 0.00 13 1010.6
20260506203723 81 229 6.0 12.0 0.00 0.00 0.00 14 1010.6
20260506203627 80 238 7.0 12.0 0.00 0.00 0.00 14 1010.5
20260506203517 80 211 7.0 12.0 0.00 0.00 0.00 14 1010.5
20260506203420 80 264 7.0 14.0 0.00 0.00 0.00 13 1010.5
20260506203314 80 242 6.0 14.0 0.00 0.00 0.00 15 1010.5
20260506203213 80 280 6.0 14.0 0.00 0.00 0.00 14 1010.5
20260506203118 80 220 5.0 14.0 0.00 0.00 0.00 14 1010.5
20260506203008 80 86 5.0 14.0 0.00 0.00 0.00 15 1010.5
20260506202909 80 146 5.0 14.0 0.00 0.00 0.00 15 1010.5
20260506202806 81 297 5.0 14.0 0.00 0.00 0.00 16 1010.6
20260506202706 81 279 5.0 14.0 0.00 0.00 0.00 16 1010.7
20260506202603 81 262 5.0 14.0 0.00 0.00 0.00 16 1010.8
20260506202458 81 273 4.0 10.0 0.00 0.00 0.00 16 1010.8
20260506202404 81 287 4.0 10.0 0.00 0.00 0.00 15 1010.8
20260506202259 81 244 4.0 10.0 0.00 0.00 0.00 12 1010.8
20260506202159 81 206 4.0 10.0 0.00 0.00 0.00 14 1010.8
20260506202054 81 245 4.0 10.0 0.00 0.00 0.00 14 1010.8
20260506201948 81 234 4.0 10.0 0.00 0.00 0.00 14 1010.8
20260506201841 81 203 3.0 8.0 0.00 0.00 0.00 14 1010.7
20260506201748 80 165 3.0 8.0 0.00 0.00 0.00 15 1010.6
20260506201720 80 250 3.0 8.0 0.00 0.00 0.00 16 1010.6
20260506201644 80 250 3.0 8.0 0.00 0.00 0.00 16 1010.6
20260506201540 80 267 4.0 11.0 0.00 0.00 0.00 16 1010.5
20260506201437 79 271 4.0 11.0 0.00 0.00 0.00 16 1010.3
20260506201338 79 242 4.0 11.0 0.00 0.00 0.00 16 1010.3
20260506201240 79 243 5.0 11.0 0.00 0.00 0.00 18 1010.2
20260506201141 79 290 5.0 11.0 0.00 0.00 0.00 17 1010.2
20260506201041 79 295 5.0 11.0 0.00 0.00 0.00 17 1010.2
20260506200935 80 279 5.0 11.0 0.00 0.00 0.00 17 1010.3
20260506200833 80 231 5.0 11.0 0.00 0.00 0.00 17 1010.3
20260506200733 79 229 4.0 11.0 0.00 0.00 0.00 18 1010.2
20260506200631 79 272 4.0 11.0 0.00 0.00 0.00 18 1010.2
20260506200525 79 338 4.0 9.0 0.00 0.00 0.00 18 1010.2
20260506200427 79 317 4.0 8.0 0.00 0.00 0.00 18 1010.2
20260506200326 79 331 3.0 8.0 0.00 0.00 0.00 18 1010.2
20260506200223 79 322 3.0 8.0 0.00 0.00 0.00 18 1010.2
20260506200118 79 80 3.0 7.0 0.00 0.00 0.00 18 1010.2
20260506200019 79 22 3.0 7.0 0.00 0.00 0.00 18 1010.2
20260506195915 79 53 3.0 7.0 0.00 0.00 0.00 18 1010.2
20260506195815 79 320 3.0 7.0 0.00 0.00 0.00 18 1010.2
20260506195712 79 323 3.0 8.0 0.00 0.00 0.00 17 1010.7
20260506195610 79 49 3.0 8.0 0.00 0.00 0.00 17 1010.7
20260506195508 79 21 3.0 8.0 0.00 0.00 0.00 18 1010.7
20260506195413 79 345 3.0 8.0 0.00 0.00 0.00 17 1010.7
20260506195310 79 17 3.0 8.0 0.00 0.00 0.00 17 1010.7
20260506195211 79 236 4.0 10.0 0.00 0.00 0.00 17 1010.7
20260506195106 79 276 4.0 10.0 0.00 0.00 0.00 18 1010.7
20260506195005 79 246 4.0 10.0 0.00 0.00 0.00 18 1010.6
20260506194908 79 298 4.0 10.0 0.00 0.00 0.00 18 1010.6
20260506194807 79 325 4.0 10.0 0.00 0.00 0.00 17 1010.6
20260506194706 79 279 4.0 10.0 0.00 0.00 0.00 18 1010.6
20260506194550 78 281 4.0 10.0 0.00 0.00 0.00 19 1010.5
20260506194450 78 284 4.0 10.0 0.00 0.00 0.00 19 1010.5
20260506194353 78 303 4.0 10.0 0.00 0.00 0.00 19 1010.3
20260506194248 78 300 4.0 10.0 0.00 0.00 0.00 19 1010.3
20260506194142 78 300 4.0 8.0 0.00 0.00 0.00 19 1010.3
20260506194046 78 74 4.0 8.0 0.00 0.00 0.00 18 1010.3
20260506193946 78 312 4.0 8.0 0.00 0.00 0.00 18 1010.3
20260506193841 78 294 3.0 8.0 0.00 0.00 0.00 18 1010.5
20260506193737 78 294 3.0 8.0 0.00 0.00 0.00 17 1010.5
20260506193648 79 287 3.0 8.0 0.00 0.00 0.00 17 1010.6
20260506193539 79 306 3.0 8.0 0.00 0.00 0.00 17 1010.6
20260506193433 79 323 3.0 8.0 0.00 0.00 0.00 17 1010.7
20260506193331 79 11 3.0 8.0 0.00 0.00 0.00 17 1010.7
20260506193241 80 320 3.0 8.0 0.00 0.00 0.00 17 1010.8
20260506193124 80 277 2.0 8.0 0.00 0.00 0.00 17 1010.8
20260506193028 80 266 1.0 6.0 0.00 0.00 0.00 17 1010.9
20260506192922 80 211 2.0 8.0 0.00 0.00 0.00 16 1010.8
20260506192823 80 79 3.0 10.0 0.00 0.00 0.00 17 1010.8
20260506192717 80 171 3.0 10.0 0.00 0.00 0.00 17 1011.2
20260506192616 79 248 3.0 10.0 0.00 0.00 0.00 17 1011.1
20260506192519 79 190 3.0 10.0 0.00 0.00 0.00 19 1011.1
20260506192415 79 150 3.0 10.0 0.00 0.00 0.00 19 1011.0
20260506192310 79 185 2.0 10.0 0.00 0.00 0.00 19 1011.0
20260506192211 78 134 2.0 10.0 0.00 0.00 0.00 19 1011.0
20260506192115 78 59 2.0 10.0 0.00 0.00 0.00 19 1011.0
20260506192016 78 180 3.0 10.0 0.00 0.00 0.00 19 1011.0
20260506191911 78 150 2.0 10.0 0.00 0.00 0.00 19 1011.0
20260506191809 79 266 2.0 10.0 0.00 0.00 0.00 19 1011.0
20260506191711 79 242 2.0 8.0 0.00 0.00 0.00 19 1011.0
20260506191609 79 264 2.0 8.0 0.00 0.00 0.00 20 1011.1
20260506191507 79 284 2.0 8.0 0.00 0.00 0.00 20 1011.1
20260506191405 79 269 2.0 7.0 0.00 0.00 0.00 20 1011.0
20260506191304 78 316 2.0 7.0 0.00 0.00 0.00 19 1010.9
20260506191140 78 236 2.0 7.0 0.00 0.00 0.00 19 1011.0
20260506191042 78 276 2.0 7.0 0.00 0.00 0.00 19 1011.0
20260506190944 78 232 2.0 7.0 0.00 0.00 0.00 19 1011.0
20260506190842 78 230 2.0 7.0 0.00 0.00 0.00 19 1011.0
20260506190740 78 227 2.0 7.0 0.00 0.00 0.00 19 1011.0
20260506190635 78 208 2.0 7.0 0.00 0.00 0.00 19 1011.0
20260506190535 78 281 2.0 7.0 0.00 0.00 0.00 20 1010.9
20260506190434 78 246 2.0 7.0 0.00 0.00 0.00 20 1010.9
20260506190334 77 245 2.0 7.0 0.00 0.00 0.00 21 1010.8
20260506190244 77 254 3.0 7.0 0.00 0.00 0.00 21 1010.8
20260506190128 77 298 3.0 9.0 0.00 0.00 0.00 21 1010.8
20260506190025 77 286 3.0 9.0 0.00 0.00 0.00 21 1010.8
20260506185926 77 279 3.0 9.0 0.00 0.00 0.00 21 1010.8
20260506185825 77 257 2.0 9.0 0.00 0.00 0.00 21 1010.9
20260506185729 77 252 3.0 9.0 0.00 0.00 0.00 19 1011.0
20260506185626 78 309 3.0 9.0 0.00 0.00 0.00 19 1011.1
20260506185520 78 319 3.0 10.0 0.00 0.00 0.00 21 1011.1
20260506185418 78 246 3.0 10.0 0.00 0.00 0.00 21 1011.1
20260506185315 78 243 3.0 10.0 0.00 0.00 0.00 20 1011.1
20260506185214 77 212 3.0 10.0 0.00 0.00 0.00 21 1011.0
20260506185107 77 82 2.0 10.0 0.00 0.00 0.00 20 1011.0
20260506185011 77 144 2.0 10.0 0.00 0.00 0.00 20 1011.0
20260506184912 77 220 2.0 10.0 0.00 0.00 0.00 20 1011.0
20260506184711 78 149 2.0 10.0 0.00 0.00 0.00 21 1011.1
20260506184609 78 82 2.0 10.0 0.00 0.00 0.00 21 1011.1
20260506184458 78 41 2.0 8.0 0.00 0.00 0.00 20 1011.2
20260506184403 78 113 3.0 8.0 0.00 0.00 0.00 21 1011.2
20260506184257 78 192 2.0 8.0 0.00 0.00 0.00 21 1011.1
20260506184157 77 90 2.0 8.0 0.00 0.00 0.00 22 1011.4
20260506184059 77 210 2.0 8.0 0.00 0.00 0.00 22 1011.4
20260506183952 77 161 2.0 8.0 0.00 0.00 0.00 22 1011.3
20260506183853 77 195 3.0 8.0 0.00 0.00 0.00 22 1011.3
20260506183744 77 220 3.0 8.0 0.00 0.00 0.00 22 1011.3
20260506183640 77 242 2.0 8.0 0.00 0.00 0.00 22 1011.3
20260506183539 77 272 2.0 8.0 0.00 0.00 0.00 22 1011.3
20260506183438 77 272 2.0 8.0 0.00 0.00 0.00 23 1011.3
20260506183331 77 238 2.0 8.0 0.00 0.00 0.00 24 1011.3
20260506183224 76 92 2.0 8.0 0.00 0.00 0.00 24 1011.2
20260506183126 77 315 2.0 8.0 0.00 0.00 0.00 24 1011.3
20260506183023 77 105 2.0 8.0 0.00 0.00 0.00 24 1011.4
20260506182917 77 110 2.0 8.0 0.00 0.00 0.00 24 1011.4
20260506182814 77 101 2.0 8.0 0.00 0.00 0.00 25 1011.4
20260506182718 77 85 2.0 8.0 0.00 0.00 0.00 25 1011.9
20260506182618 77 196 3.0 8.0 0.00 0.00 0.00 24 1011.9
20260506182510 77 178 2.0 8.0 0.00 0.00 0.00 24 1012.0
20260506182411 77 242 2.0 7.0 0.00 0.00 0.00 25 1012.0
20260506182314 77 115 2.0 7.0 0.00 0.00 0.00 25 1012.0
20260506182209 77 97 2.0 7.0 0.00 0.00 0.00 25 1012.0
20260506182108 77 108 2.0 7.0 0.00 0.00 0.00 26 1012.0
20260506182015 77 130 2.0 6.0 0.00 0.00 0.00 27 1011.9
20260506181911 77 221 2.0 6.0 0.00 0.00 0.00 27 1011.8
20260506181811 76 103 3.0 9.0 0.00 0.00 0.00 27 1011.8
20260506181711 76 169 2.0 9.0 0.00 0.00 0.00 28 1011.8
20260506181613 76 99 2.0 9.0 0.00 0.00 0.00 27 1011.8
20260506181511 76 234 2.0 9.0 0.00 0.00 0.00 28 1011.7
20260506181409 76 190 2.0 9.0 0.00 0.00 0.00 28 1011.6
20260506181249 75 229 2.0 9.0 0.00 0.00 0.00 29 1011.4
20260506181201 75 191 2.0 9.0 0.00 0.00 0.00 29 1011.9
20260506181047 75 124 2.0 9.0 0.00 0.00 0.00 29 1011.9
20260506180941 75 93 2.0 9.0 0.00 0.00 0.00 29 1011.9
20260506180840 75 70 1.0 9.0 0.00 0.00 0.00 29 1012.0
20260506180746 75 69 1.0 9.0 0.00 0.00 0.00 29 1012.1
20260506180640 75 19 1.0 9.0 0.00 0.00 0.00 29 1012.1
20260506180532 75 254 1.0 9.0 0.00 0.00 0.00 28 1012.1
20260506180433 76 236 1.0 9.0 0.00 0.00 0.00 28 1012.1
20260506180333 76 277 1.0 9.0 0.00 0.00 0.00 28 1012.1
20260506180222 76 323 1.0 9.0 0.00 0.00 0.00 29 1012.1
20260506180123 76 153 1.0 9.0 0.00 0.00 0.00 29 1012.1
20260506180013 75 169 1.0 9.0 0.00 0.00 0.00 30 1012.0
20260506175910 75 88 0.0 7.0 0.00 0.00 0.00 31 1011.9
20260506175812 74 85 0.0 5.0 0.00 0.00 0.00 33 1011.8
20260506175719 74 217 0.0 5.0 0.00 0.00 0.00 33 1011.8
20260506175615 74 333 1.0 7.0 0.00 0.00 0.00 31 1011.8
20260506175516 73 40 1.0 8.0 0.00 0.00 0.00 31 1011.8
20260506175414 74 41 1.0 8.0 0.00 0.00 0.00 31 1011.8
20260506175306 74 61 1.0 8.0 0.00 0.00 0.00 31 1011.8
20260506175157 74 331 2.0 8.0 0.00 0.00 0.00 30 1011.8
20260506175055 74 231 1.0 8.0 0.00 0.00 0.00 30 1011.8
20260506174955 74 278 2.0 8.0 0.00 0.00 0.00 30 1011.8
20260506174845 74 249 2.0 8.0 0.00 0.00 0.00 32 1011.8
20260506174747 74 262 2.0 8.0 0.00 0.00 0.00 32 1011.8
20260506174644 73 109 2.0 8.0 0.00 0.00 0.00 32 1011.8
20260506174545 73 23 2.0 8.0 0.00 0.00 0.00 30 1011.7
20260506174442 74 86 2.0 8.0 0.00 0.00 0.00 30 1011.8
20260506174338 74 134 2.0 8.0 0.00 0.00 0.00 31 1011.9
20260506174236 74 126 2.0 8.0 0.00 0.00 0.00 31 1011.9
20260506174141 74 104 2.0 10.0 0.00 0.00 0.00 33 1012.2
20260506174038 74 188 2.0 10.0 0.00 0.00 0.00 33 1012.1
20260506173939 74 233 2.0 10.0 0.00 0.00 0.00 32 1012.1
20260506173836 74 228 2.0 10.0 0.00 0.00 0.00 32 1012.2
20260506173741 74 178 1.0 10.0 0.00 0.00 0.00 32 1012.2
20260506173641 74 187 1.0 10.0 0.00 0.00 0.00 33 1012.1
20260506173530 74 151 1.0 10.0 0.00 0.00 0.00 33 1012.1
20260506173430 73 161 1.0 10.0 0.00 0.00 0.00 33 1012.0
20260506173334 73 165 1.0 10.0 0.00 0.00 0.00 33 1012.0
20260506173237 73 159 0.0 10.0 0.00 0.00 0.00 34 1011.9
20260506173122 73 69 0.0 6.0 0.00 0.00 0.00 35 1011.9
20260506173029 72 113 0.0 6.0 0.00 0.00 0.00 35 1011.8
20260506172929 72 82 0.0 4.0 0.00 0.00 0.00 34 1011.8
20260506172821 72 151 0.0 4.0 0.00 0.00 0.00 34 1011.7
20260506172713 72 77 0.0 4.0 0.00 0.00 0.00 36 1012.1
20260506172615 72 355 0.0 4.0 0.00 0.00 0.00 35 1012.0
20260506172511 71 57 0.0 4.0 0.00 0.00 0.00 35 1012.0
20260506172414 71 140 0.0 4.0 0.00 0.00 0.00 36 1012.0
20260506172316 71 74 0.0 4.0 0.00 0.00 0.00 35 1011.9
20260506172210 71 101 0.0 4.0 0.00 0.00 0.00 36 1011.9
20260506172116 71 35 0.0 4.0 0.00 0.00 0.00 36 1011.9
20260506171954 71 34 1.0 4.0 0.00 0.00 0.00 36 1011.8
20260506171851 71 82 1.0 4.0 0.00 0.00 0.00 37 1011.8
20260506171748 71 93 1.0 4.0 0.00 0.00 0.00 37 1011.8
20260506171637 70 73 1.0 4.0 0.00 0.00 0.00 35 1011.8
20260506171548 70 150 1.0 4.0 0.00 0.00 0.00 35 1011.8
20260506171446 70 155 1.0 4.0 0.00 0.00 0.00 37 1011.8
20260506171340 70 102 0.0 4.0 0.00 0.00 0.00 37 1011.8
20260506171234 70 44 0.0 3.0 0.00 0.00 0.00 37 1012.1
20260506171133 70 47 0.0 3.0 0.00 0.00 0.00 37 1012.0
20260506171038 70 83 0.0 3.0 0.00 0.00 0.00 36 1012.0
20260506170932 70 56 0.0 3.0 0.00 0.00 0.00 36 1012.0
20260506170834 70 103 0.0 4.0 0.00 0.00 0.00 36 1012.0
20260506170735 70 102 0.0 5.0 0.00 0.00 0.00 37 1012.0
20260506170626 70 86 1.0 5.0 0.00 0.00 0.00 38 1012.0
20260506170526 70 65 1.0 6.0 0.00 0.00 0.00 37 1012.0
20260506170423 69 336 1.0 6.0 0.00 0.00 0.00 36 1012.0
20260506170330 69 49 1.0 6.0 0.00 0.00 0.00 36 1012.0
20260506170214 69 295 1.0 6.0 0.00 0.00 0.00 36 1012.0
20260506170113 69 121 2.0 6.0 0.00 0.00 0.00 37 1011.9
20260506170013 69 117 2.0 6.0 0.00 0.00 0.00 38 1011.9
20260506165900 69 110 2.0 6.0 0.00 0.00 0.00 37 1011.8
20260506165804 69 149 2.0 6.0 0.00 0.00 0.00 37 1011.8
20260506165657 69 60 2.0 6.0 0.00 0.00 0.00 38 1011.8
20260506165553 69 130 2.0 5.0 0.00 0.00 0.00 38 1011.8
20260506165458 69 128 2.0 5.0 0.00 0.00 0.00 40 1011.8
20260506165356 68 96 2.0 5.0 0.00 0.00 0.00 40 1011.8
20260506165246 68 94 1.0 5.0 0.00 0.00 0.00 40 1011.8
20260506165151 68 90 1.0 5.0 0.00 0.00 0.00 41 1011.8
20260506165044 68 80 1.0 5.0 0.00 0.00 0.00 42 1011.8
20260506164946 68 80 1.0 5.0 0.00 0.00 0.00 42 1011.8
20260506164901 68 112 0.0 5.0 0.00 0.00 0.00 42 1011.8
20260506164750 68 46 0.0 5.0 0.00 0.00 0.00 43 1011.8
20260506164642 68 54 0.0 2.0 0.00 0.00 0.00 44 1011.7
20260506164538 68 83 0.0 4.0 0.00 0.00 0.00 42 1011.7
20260506164435 68 118 1.0 7.0 0.00 0.00 0.00 43 1011.7
20260506164333 68 96 1.0 7.0 0.00 0.00 0.00 43 1011.7
20260506164224 68 32 1.0 7.0 0.00 0.00 0.00 43 1011.7
20260506164114 68 76 1.0 7.0 0.00 0.00 0.00 44 1011.7
20260506164019 67 51 1.0 7.0 0.00 0.00 0.00 44 1011.7
20260506163912 67 311 1.0 7.0 0.00 0.00 0.00 43 1011.7
20260506163811 68 77 1.0 7.0 0.00 0.00 0.00 43 1011.7
20260506163713 68 59 1.0 7.0 0.00 0.00 0.00 44 1011.7
20260506163619 68 34 1.0 7.0 0.00 0.00 0.00 44 1011.8
20260506163512 68 61 1.0 7.0 0.00 0.00 0.00 43 1011.8
20260506163409 68 90 0.0 6.0 0.00 0.00 0.00 43 1011.8
20260506163309 68 65 0.0 3.0 0.00 0.00 0.00 43 1011.8
20260506163211 68 66 0.0 3.0 0.00 0.00 0.00 44 1011.8
20260506163041 68 67 0.0 4.0 0.00 0.00 0.00 44 1011.8
20260506162934 68 78 0.0 4.0 0.00 0.00 0.00 42 1011.8
20260506162840 68 328 0.0 4.0 0.00 0.00 0.00 43 1011.8
20260506162741 68 72 0.0 4.0 0.00 0.00 0.00 43 1012.2
20260506162628 68 74 0.0 4.0 0.00 0.00 0.00 43 1012.2
20260506162527 67 69 0.0 4.0 0.00 0.00 0.00 44 1012.1
20260506162411 67 50 0.0 4.0 0.00 0.00 0.00 43 1012.1
20260506162307 67 36 0.0 4.0 0.00 0.00 0.00 43 1012.1
20260506162205 67 17 0.0 4.0 0.00 0.00 0.00 43 1012.1
20260506162055 67 65 1.0 6.0 0.00 0.00 0.00 44 1012.0
20260506161952 67 342 1.0 6.0 0.00 0.00 0.00 44 1012.0
20260506161850 67 33 1.0 14.0 0.00 0.00 0.00 45 1012.0
20260506161749 67 75 1.0 14.0 0.00 0.00 0.00 45 1011.9
20260506161640 66 186 1.0 14.0 0.00 0.00 0.00 45 1011.8
20260506161530 66 179 1.0 14.0 0.00 0.00 0.00 45 1011.8
20260506161425 66 145 1.0 14.0 0.00 0.00 0.00 45 1011.8
20260506161327 66 83 1.0 14.0 0.00 0.00 0.00 45 1011.8
20260506161221 66 36 1.0 14.0 0.00 0.00 0.00 45 1011.8
20260506161116 66 76 1.0 14.0 0.00 0.00 0.00 47 1011.8
20260506161016 66 355 1.0 14.0 0.00 0.00 0.00 47 1011.7
20260506160908 66 118 0.0 11.0 0.00 0.00 0.00 47 1011.7
20260506160809 66 89 0.0 4.0 0.00 0.00 0.00 47 1011.7
20260506160711 66 115 0.0 4.0 0.00 0.00 0.00 47 1011.7
20260506160613 66 41 0.0 4.0 0.00 0.00 0.00 47 1011.7
20260506160456 65 67 0.0 4.0 0.00 0.00 0.00 46 1011.6
20260506160351 65 41 0.0 4.0 0.00 0.00 0.00 46 1011.6
20260506160249 65 61 0.0 4.0 0.00 0.00 0.00 45 1011.4
20260506160150 65 64 0.0 4.0 0.00 0.00 0.00 47 1011.6
20260506160039 65 348 0.0 4.0 0.00 0.00 0.00 49 1011.6
20260506155938 65 20 0.0 4.0 0.00 0.00 0.00 49 1011.4
20260506155839 64 52 0.0 4.0 0.00 0.00 0.00 49 1011.3
20260506155739 64 293 0.0 4.0 0.00 0.00 0.00 48 1011.6
20260506155631 64 249 0.0 4.0 0.00 0.00 0.00 48 1011.6
20260506155534 64 271 1.0 4.0 0.00 0.00 0.00 49 1011.6
20260506155428 64 303 1.0 4.0 0.00 0.00 0.00 49 1011.6
20260506155323 64 275 1.0 4.0 0.00 0.00 0.00 48 1011.6
20260506155228 64 317 1.0 5.0 0.00 0.00 0.00 48 1011.6
20260506155122 64 273 1.0 5.0 0.00 0.00 0.00 49 1011.6
20260506155025 64 301 1.0 5.0 0.00 0.00 0.00 49 1011.6
20260506154916 64 326 1.0 5.0 0.00 0.00 0.00 50 1011.6
20260506154817 64 39 1.0 5.0 0.00 0.00 0.00 50 1011.6
20260506154713 64 285 1.0 5.0 0.00 0.00 0.00 49 1011.4
20260506154616 64 326 1.0 5.0 0.00 0.00 0.00 48 1011.4
20260506154510 64 338 1.0 5.0 0.00 0.00 0.00 48 1011.6
20260506154415 64 329 1.0 5.0 0.00 0.00 0.00 48 1011.6
20260506154309 64 337 1.0 5.0 0.00 0.00 0.00 49 1011.6
20260506154204 64 307 1.0 5.0 0.00 0.00 0.00 48 1011.4
20260506154102 64 40 0.0 5.0 0.00 0.00 0.00 48 1011.4
20260506154008 64 330 0.0 5.0 0.00 0.00 0.00 51 1011.3
20260506153854 63 74 0.0 5.0 0.00 0.00 0.00 51 1011.3
20260506153745 63 261 1.0 5.0 0.00 0.00 0.00 50 1011.2
20260506153643 63 45 1.0 5.0 0.00 0.00 0.00 50 1011.1
20260506153541 63 43 1.0 5.0 0.00 0.00 0.00 50 1011.1
20260506153440 63 311 1.0 5.0 0.00 0.00 0.00 50 1011.1
20260506153340 63 302 1.0 4.0 0.00 0.00 0.00 50 1011.1
20260506153241 63 295 1.0 4.0 0.00 0.00 0.00 51 1011.2
20260506153141 63 11 1.0 4.0 0.00 0.00 0.00 50 1011.1
20260506153038 63 338 1.0 4.0 0.00 0.00 0.00 50 1011.1
20260506152942 63 319 1.0 4.0 0.00 0.00 0.00 50 1011.1
20260506152829 63 346 1.0 4.0 0.00 0.00 0.00 50 1011.1
20260506152725 63 321 1.0 5.0 0.00 0.00 0.00 50 1011.2
20260506152609 63 5 1.0 5.0 0.00 0.00 0.00 51 1011.2
20260506152511 63 321 1.0 5.0 0.00 0.00 0.00 50 1011.2
20260506152408 63 292 1.0 5.0 0.00 0.00 0.00 51 1011.3
20260506152316 63 289 0.0 5.0 0.00 0.00 0.00 51 1011.3
20260506152214 63 5 0.0 5.0 0.00 0.00 0.00 51 1011.2
20260506152110 63 29 0.0 5.0 0.00 0.00 0.00 51 1011.2
20260506152022 63 57 0.0 5.0 0.00 0.00 0.00 50 1011.2
20260506151904 63 28 0.0 5.0 0.00 0.00 0.00 51 1011.2
20260506151802 62 17 0.0 3.0 0.00 0.00 0.00 52 1011.2
20260506151650 62 69 0.0 3.0 0.00 0.00 0.00 52 1011.1
20260506151537 62 336 0.0 3.0 0.00 0.00 0.00 52 1011.1
20260506151438 62 317 0.0 3.0 0.00 0.00 0.00 52 1011.1
20260506151347 62 27 0.0 4.0 0.00 0.00 0.00 53 1011.0
20260506151239 62 261 0.0 4.0 0.00 0.00 0.00 54 1011.0
20260506151138 61 280 0.0 4.0 0.00 0.00 0.00 54 1010.9
20260506151037 61 280 0.0 4.0 0.00 0.00 0.00 53 1010.9
20260506150937 61 285 0.0 4.0 0.00 0.00 0.00 53 1010.9
20260506150838 61 289 0.0 4.0 0.00 0.00 0.00 53 1010.9
20260506150736 61 329 0.0 4.0 0.00 0.00 0.00 53 1010.9
20260506150633 61 302 0.0 4.0 0.00 0.00 0.00 53 1010.9
20260506150531 61 340 0.0 4.0 0.00 0.00 0.00 52 1010.9
20260506150421 61 310 0.0 4.0 0.00 0.00 0.00 54 1010.9
20260506150318 61 284 0.0 4.0 0.00 0.00 0.00 53 1010.9
20260506150220 61 312 0.0 4.0 0.00 0.00 0.00 53 1010.9
20260506150117 61 311 0.0 4.0 0.00 0.00 0.00 54 1010.9
20260506150012 61 307 0.0 2.0 0.00 0.00 0.00 54 1010.9
20260506145912 61 301 0.0 2.0 0.00 0.00 0.00 54 1010.8
20260506145810 61 288 0.0 2.0 0.00 0.00 0.00 55 1010.8
20260506145714 60 60 0.0 2.0 0.00 0.00 0.00 55 1010.9
20260506145617 60 315 0.0 2.0 0.00 0.00 0.00 54 1010.9
20260506145517 60 291 0.0 3.0 0.00 0.00 0.00 54 1010.9
20260506145411 60 246 0.0 3.0 0.00 0.00 0.00 55 1010.9
20260506145310 60 285 0.0 3.0 0.00 0.00 0.00 55 1010.9
20260506145211 60 289 0.0 3.0 0.00 0.00 0.00 55 1010.9
20260506145112 60 288 0.0 3.0 0.00 0.00 0.00 56 1010.9
20260506145008 60 296 0.0 3.0 0.00 0.00 0.00 56 1010.9
20260506144906 60 266 0.0 3.0 0.00 0.00 0.00 56 1010.8
20260506144811 60 32 0.0 3.0 0.00 0.00 0.00 55 1010.8
20260506144658 60 287 0.0 3.0 0.00 0.00 0.00 55 1010.8
20260506144552 60 288 1.0 3.0 0.00 0.00 0.00 55 1010.9
20260506144448 60 30 1.0 5.0 0.00 0.00 0.00 56 1010.8
20260506144349 60 325 1.0 5.0 0.00 0.00 0.00 57 1010.8
20260506144252 60 307 1.0 5.0 0.00 0.00 0.00 57 1010.8
20260506144141 60 303 1.0 5.0 0.00 0.00 0.00 57 1011.0
20260506144046 59 266 1.0 5.0 0.00 0.00 0.00 57 1011.0
20260506143937 59 274 1.0 5.0 0.00 0.00 0.00 57 1010.9
20260506143836 59 293 1.0 5.0 0.00 0.00 0.00 57 1010.9
20260506143739 59 283 1.0 5.0 0.00 0.00 0.00 57 1010.9
20260506143637 59 301 1.0 5.0 0.00 0.00 0.00 58 1010.9
20260506143539 59 282 1.0 5.0 0.00 0.00 0.00 58 1010.9
20260506143440 59 285 0.0 5.0 0.00 0.00 0.00 58 1010.9
20260506143418 59 284 0.0 5.0 0.00 0.00 0.00 57 1010.9
20260506143345 59 284 0.0 5.0 0.00 0.00 0.00 57 1010.9
20260506143246 59 304 0.0 5.0 0.00 0.00 0.00 58 1010.9
20260506143124 59 283 1.0 5.0 0.00 0.00 0.00 58 1010.8
20260506143022 58 37 1.0 5.0 0.00 0.00 0.00 58 1010.8
20260506142919 58 10 1.0 5.0 0.00 0.00 0.00 58 1010.8
20260506142816 58 276 1.0 5.0 0.00 0.00 0.00 58 1010.8
20260506142715 58 290 1.0 5.0 0.00 0.00 0.00 58 1011.0
20260506142613 58 295 1.0 5.0 0.00 0.00 0.00 59 1011.0
20260506142553 58 311 1.0 5.0 0.00 0.00 0.00 58 1011.0
20260506142412 58 275 1.0 5.0 0.00 0.00 0.00 58 1010.9
20260506142255 58 295 1.0 5.0 0.00 0.00 0.00 58 1010.9
20260506142153 58 315 1.0 5.0 0.00 0.00 0.00 58 1010.9
20260506142040 58 302 1.0 5.0 0.00 0.00 0.00 58 1010.9
20260506141940 58 319 1.0 5.0 0.00 0.00 0.00 59 1010.9
20260506141840 58 305 1.0 5.0 0.00 0.00 0.00 59 1010.9
20260506141740 58 332 1.0 5.0 0.00 0.00 0.00 60 1010.9
20260506141642 58 336 1.0 5.0 0.00 0.00 0.00 60 1010.9
20260506141536 57 317 1.0 5.0 0.00 0.00 0.00 59 1010.9
20260506141422 58 282 1.0 5.0 0.00 0.00 0.00 59 1010.9
20260506141321 58 302 2.0 6.0 0.00 0.00 0.00 59 1010.9
20260506141229 57 314 2.0 6.0 0.00 0.00 0.00 59 1010.2
20260506141114 57 284 2.0 6.0 0.00 0.00 0.00 59 1010.2
20260506141014 57 331 2.0 6.0 0.00 0.00 0.00 59 1010.2
20260506140912 57 294 2.0 6.0 0.00 0.00 0.00 60 1010.2
20260506140811 57 0 2.0 6.0 0.00 0.00 0.00 60 1010.2
20260506140715 57 338 2.0 6.0 0.00 0.00 0.00 60 1010.2
20260506140609 57 349 3.0 6.0 0.00 0.00 0.00 60 1010.1
20260506140508 57 324 3.0 7.0 0.00 0.00 0.00 60 1010.1
20260506140409 57 300 3.0 7.0 0.00 0.00 0.00 60 1010.1
20260506140312 57 303 3.0 7.0 0.00 0.00 0.00 60 1010.1